Time,TemperatureF,DewpointF,PressureIn,WindDirection,WindDirectionDegrees,WindSpeedMPH,WindSpeedGustMPH,Humidity,HourlyPrecipIn,Conditions,Clouds,dailyrainin,SoftwareType,DateUTC
2013-11-13 07:22:00,0.0,0.0,30.12,NNE,16,10.1,10.1,0,0.00,,---,0.00,VWS V14.01,2013-11-13 12:22:00,
2013-11-13 07:23:00,0.0,0.0,30.12,NNE,12,10.1,10.1,0,0.00,,---,0.00,VWS V14.01,2013-11-13 12:23:00,
2013-11-13 07:24:00,0.0,0.0,30.12,NNW,332,12.8,12.8,0,0.00,,---,0.00,VWS V14.01,2013-11-13 12:24:00,
2013-11-13 07:25:00,0.0,0.0,30.12,North,353,7.6,10.5,0,0.00,,---,0.00,VWS V14.01,2013-11-13 12:25:00,
2013-11-13 07:26:00,0.0,0.0,30.12,NNW,341,5.8,7.6,0,0.00,,---,0.00,VWS V14.01,2013-11-13 12:26:00,
2013-11-13 07:27:00,0.0,0.0,30.12,NNW,329,4.0,6.3,0,0.00,,---,0.00,VWS V14.01,2013-11-13 12:27:00,
2013-11-13 07:28:00,0.0,0.0,30.12,NW,307,5.4,5.4,0,0.00,,---,0.00,VWS V14.01,2013-11-13 12:28:00,
2013-11-13 07:29:00,0.0,0.0,30.12,NNW,330,7.6,7.6,0,0.00,,---,0.00,VWS V14.01,2013-11-13 12:29:00,
2013-11-13 07:30:00,0.0,0.0,30.12,NNW,338,6.3,7.6,0,0.00,,---,0.00,VWS V14.01,2013-11-13 12:30:00,
2013-11-13 07:31:00,0.0,0.0,30.12,North,353,4.0,6.3,0,0.00,,---,0.00,VWS V14.01,2013-11-13 12:31:00,
2013-11-13 07:32:00,0.0,0.0,30.12,WNW,293,6.3,6.3,0,0.00,,---,0.00,VWS V14.01,2013-11-13 12:32:00,
2013-11-13 07:33:00,0.0,0.0,30.12,North,349,5.8,7.6,0,0.00,,---,0.00,VWS V14.01,2013-11-13 12:33:00,
2013-11-13 07:34:00,0.0,0.0,30.12,NNW,329,7.6,10.1,0,0.00,,---,0.00,VWS V14.01,2013-11-13 12:34:00,
2013-11-13 07:35:00,0.0,0.0,30.12,North,9,7.6,10.1,0,0.00,,---,0.00,VWS V14.01,2013-11-13 12:35:00,
2013-11-13 07:36:00,0.0,0.0,30.12,NNE,24,5.4,8.1,0,0.00,,---,0.00,VWS V14.01,2013-11-13 12:36:00,
2013-11-13 07:37:00,0.0,0.0,30.12,NW,324,4.9,6.7,0,0.00,,---,0.00,VWS V14.01,2013-11-13 12:37:00,
2013-11-13 07:38:00,0.0,0.0,30.12,NNW,340,4.9,8.3,0,0.00,,---,0.00,VWS V14.01,2013-11-13 12:38:00,
2013-11-13 07:39:00,0.0,0.0,30.12,NNW,327,8.3,8.3,0,0.00,,---,0.00,VWS V14.01,2013-11-13 12:39:00,
2013-11-13 07:40:00,0.0,0.0,30.12,NNW,335,4.0,8.3,0,0.00,,---,0.00,VWS V14.01,2013-11-13 12:40:00,
2013-11-13 07:41:00,0.0,0.0,30.12,NW,315,6.3,6.3,0,0.00,,---,0.00,VWS V14.01,2013-11-13 12:41:00,
2013-11-13 07:42:00,0.0,0.0,30.12,NW,322,6.3,8.1,0,0.00,,---,0.00,VWS V14.01,2013-11-13 12:42:00,
2013-11-13 07:43:00,0.0,0.0,30.12,NW,319,4.9,8.3,0,0.00,,---,0.00,VWS V14.01,2013-11-13 12:43:00,
2013-11-13 07:44:00,0.0,0.0,30.12,NNW,329,6.7,6.7,0,0.00,,---,0.00,VWS V14.01,2013-11-13 12:44:00,
2013-11-13 07:45:00,0.0,0.0,30.12,NW,326,4.0,8.7,0,0.00,,---,0.00,VWS V14.01,2013-11-13 12:45:00,
2013-11-13 07:46:00,0.0,0.0,30.12,NNW,332,5.8,8.1,0,0.00,,---,0.00,VWS V14.01,2013-11-13 12:46:00,
2013-11-13 07:47:00,0.0,0.0,30.12,NNW,333,4.5,8.7,0,0.00,,---,0.00,VWS V14.01,2013-11-13 12:47:00,
2013-11-13 07:48:00,0.0,0.0,30.12,NNW,334,3.6,5.8,0,0.00,,---,0.00,VWS V14.01,2013-11-13 12:48:00,
2013-11-13 07:49:00,0.0,0.0,30.12,NNE,29,7.6,8.1,0,0.00,,---,0.00,VWS V14.01,2013-11-13 12:49:00,
2013-11-13 07:50:00,0.0,0.0,30.12,NW,322,4.9,8.1,0,0.00,,---,0.00,VWS V14.01,2013-11-13 12:50:00,
2013-11-13 07:51:00,0.0,0.0,30.12,NNW,329,8.7,8.7,0,0.00,,---,0.00,VWS V14.01,2013-11-13 12:51:00,
2013-11-13 07:52:00,0.0,0.0,30.12,North,353,5.4,8.7,0,0.00,,---,0.00,VWS V14.01,2013-11-13 12:52:00,
2013-11-13 07:53:00,0.0,0.0,30.12,NNW,330,7.6,8.3,0,0.00,,---,0.00,VWS V14.01,2013-11-13 12:53:00,
2013-11-13 07:54:00,0.0,0.0,30.12,North,353,3.6,5.4,0,0.00,,---,0.00,VWS V14.01,2013-11-13 12:54:00,
2013-11-13 07:55:00,0.0,0.0,30.12,NNW,330,5.4,5.4,0,0.00,,---,0.00,VWS V14.01,2013-11-13 12:55:00,
2013-11-13 07:56:00,0.0,0.0,30.12,NW,320,3.1,6.3,0,0.00,,---,0.00,VWS V14.01,2013-11-13 12:56:00,
2013-11-13 07:57:00,0.0,0.0,30.12,NW,326,7.6,7.6,0,0.00,,---,0.00,VWS V14.01,2013-11-13 12:57:00,
2013-11-13 07:58:00,0.0,0.0,30.12,WNW,297,7.6,7.6,0,0.00,,---,0.00,VWS V14.01,2013-11-13 12:58:00,
2013-11-13 07:59:00,0.0,0.0,30.12,NW,321,4.5,5.4,0,0.00,,---,0.00,VWS V14.01,2013-11-13 12:59:00,
2013-11-13 08:00:00,0.0,0.0,30.12,NW,325,4.0,5.4,0,0.00,,---,0.00,VWS V14.01,2013-11-13 13:00:00,
2013-11-13 08:01:00,0.0,0.0,30.12,NNW,332,5.8,5.8,0,0.00,,---,0.00,VWS V14.01,2013-11-13 13:01:00,
2013-11-13 08:02:00,0.0,0.0,30.12,NW,307,4.0,5.8,0,0.00,,---,0.00,VWS V14.01,2013-11-13 13:02:00,
2013-11-13 08:03:00,0.0,0.0,30.12,NW,315,8.7,10.1,0,0.00,,---,0.00,VWS V14.01,2013-11-13 13:03:00,
2013-11-13 08:04:00,0.0,0.0,30.12,North,0,8.7,8.7,0,0.00,,---,0.00,VWS V14.01,2013-11-13 13:04:00,
2013-11-13 08:05:00,0.0,0.0,30.12,North,7,5.8,8.7,0,0.00,,---,0.00,VWS V14.01,2013-11-13 13:05:00,
2013-11-13 08:06:00,0.0,0.0,30.12,NNW,331,3.6,7.6,0,0.00,,---,0.00,VWS V14.01,2013-11-13 13:06:00,
2013-11-13 08:07:00,0.0,0.0,30.12,North,357,7.6,7.6,0,0.00,,---,0.00,VWS V14.01,2013-11-13 13:07:00,
2013-11-13 08:08:00,0.0,0.0,30.12,NE,34,6.3,7.6,0,0.00,,---,0.00,VWS V14.01,2013-11-13 13:08:00,
2013-11-13 08:09:00,0.0,0.0,30.12,NW,317,6.3,6.3,0,0.00,,---,0.00,VWS V14.01,2013-11-13 13:09:00,
2013-11-13 08:10:00,0.0,0.0,30.12,NW,321,3.6,6.3,0,0.00,,---,0.00,VWS V14.01,2013-11-13 13:10:00,
2013-11-13 08:11:00,0.0,0.0,30.12,NNW,329,4.0,4.0,0,0.00,,---,0.00,VWS V14.01,2013-11-13 13:11:00,
2013-11-13 08:12:00,0.0,0.0,30.15,North,0,8.1,8.1,0,0.00,,---,0.00,VWS V14.01,2013-11-13 13:12:00,
2013-11-13 08:13:00,0.0,0.0,30.15,NNW,333,7.6,12.3,0,0.00,,---,0.00,VWS V14.01,2013-11-13 13:13:00,
2013-11-13 08:14:00,0.0,0.0,30.15,NNW,342,6.3,6.3,0,0.00,,---,0.00,VWS V14.01,2013-11-13 13:14:00,
2013-11-13 08:15:00,0.0,0.0,30.15,NW,314,8.3,8.3,0,0.00,,---,0.00,VWS V14.01,2013-11-13 13:15:00,
2013-11-13 08:16:00,0.0,0.0,30.15,NNW,336,10.1,10.1,0,0.00,,---,0.00,VWS V14.01,2013-11-13 13:16:00,
2013-11-13 08:17:00,0.0,0.0,30.15,NNW,329,7.6,10.1,0,0.00,,---,0.00,VWS V14.01,2013-11-13 13:17:00,
2013-11-13 08:18:00,0.0,0.0,30.15,NNW,330,5.8,8.3,0,0.00,,---,0.00,VWS V14.01,2013-11-13 13:18:00,
2013-11-13 08:19:00,0.0,0.0,30.15,NNW,332,5.4,5.4,0,0.00,,---,0.00,VWS V14.01,2013-11-13 13:19:00,
2013-11-13 08:20:00,0.0,0.0,30.15,NNW,330,4.0,5.4,0,0.00,,---,0.00,VWS V14.01,2013-11-13 13:20:00,
2013-11-13 08:21:00,0.0,0.0,30.15,NNW,335,7.6,7.6,0,0.00,,---,0.00,VWS V14.01,2013-11-13 13:21:00,
2013-11-13 08:22:00,0.0,0.0,30.15,NNW,336,6.3,7.6,0,0.00,,---,0.00,VWS V14.01,2013-11-13 13:22:00,
2013-11-13 08:23:00,0.0,0.0,30.15,NNW,342,11.0,11.0,0,0.00,,---,0.00,VWS V14.01,2013-11-13 13:23:00,
2013-11-13 08:24:00,0.0,0.0,30.15,NNW,339,10.1,10.1,0,0.00,,---,0.00,VWS V14.01,2013-11-13 13:24:00,
2013-11-13 08:25:00,0.0,0.0,30.15,NNW,342,4.9,10.1,0,0.00,,---,0.00,VWS V14.01,2013-11-13 13:25:00,
2013-11-13 08:26:00,0.0,0.0,30.15,NNW,328,5.4,5.8,0,0.00,,---,0.00,VWS V14.01,2013-11-13 13:26:00,
2013-11-13 08:27:00,0.0,0.0,30.15,NW,324,7.6,8.1,0,0.00,,---,0.00,VWS V14.01,2013-11-13 13:27:00,
2013-11-13 08:28:00,0.0,0.0,30.15,NW,323,7.6,7.6,0,0.00,,---,0.00,VWS V14.01,2013-11-13 13:28:00,
2013-11-13 08:29:00,0.0,0.0,30.15,NW,324,5.4,5.4,0,0.00,,---,0.00,VWS V14.01,2013-11-13 13:29:00,
2013-11-13 08:30:00,0.0,0.0,30.15,NNW,333,5.4,7.6,0,0.00,,---,0.00,VWS V14.01,2013-11-13 13:30:00,
2013-11-13 08:31:00,0.0,0.0,30.15,North,0,10.1,10.1,0,0.00,,---,0.00,VWS V14.01,2013-11-13 13:31:00,
2013-11-13 08:32:00,0.0,0.0,30.15,NNW,348,7.6,10.1,0,0.00,,---,0.00,VWS V14.01,2013-11-13 13:32:00,
2013-11-13 08:33:00,0.0,0.0,30.15,North,2,8.1,8.1,0,0.00,,---,0.00,VWS V14.01,2013-11-13 13:33:00,
2013-11-13 08:34:00,0.0,0.0,30.15,NW,305,7.6,12.8,0,0.00,,---,0.00,VWS V14.01,2013-11-13 13:34:00,
2013-11-13 08:35:00,0.0,0.0,30.15,NNW,339,5.8,12.8,0,0.00,,---,0.00,VWS V14.01,2013-11-13 13:35:00,
2013-11-13 08:36:00,0.0,0.0,30.15,NW,325,6.3,6.3,0,0.00,,---,0.00,VWS V14.01,2013-11-13 13:36:00,
2013-11-13 08:37:00,0.0,0.0,30.15,NW,319,8.1,8.1,0,0.00,,---,0.00,VWS V14.01,2013-11-13 13:37:00,
2013-11-13 08:38:00,0.0,0.0,30.15,NW,322,3.6,8.7,0,0.00,,---,0.00,VWS V14.01,2013-11-13 13:38:00,
2013-11-13 08:39:00,0.0,0.0,30.15,NNW,346,5.8,5.8,0,0.00,,---,0.00,VWS V14.01,2013-11-13 13:39:00,
2013-11-13 08:40:00,0.0,0.0,30.15,NNW,339,8.1,8.1,0,0.00,,---,0.00,VWS V14.01,2013-11-13 13:40:00,
2013-11-13 08:41:00,0.0,0.0,30.15,NW,313,4.9,8.1,0,0.00,,---,0.00,VWS V14.01,2013-11-13 13:41:00,
2013-11-13 08:42:00,0.0,0.0,30.15,NW,322,4.0,10.1,0,0.00,,---,0.00,VWS V14.01,2013-11-13 13:42:00,
2013-11-13 08:43:00,0.0,0.0,30.15,NNW,332,8.7,8.7,0,0.00,,---,0.00,VWS V14.01,2013-11-13 13:43:00,
2013-11-13 08:44:00,0.0,0.0,30.15,North,353,12.8,12.8,0,0.00,,---,0.00,VWS V14.01,2013-11-13 13:44:00,
2013-11-13 08:45:00,0.0,0.0,30.15,NNW,330,8.7,12.8,0,0.00,,---,0.00,VWS V14.01,2013-11-13 13:45:00,
2013-11-13 08:46:00,0.0,0.0,30.15,NW,316,5.8,11.0,0,0.00,,---,0.00,VWS V14.01,2013-11-13 13:46:00,
2013-11-13 08:47:00,0.0,0.0,30.15,NW,323,5.8,10.1,0,0.00,,---,0.00,VWS V14.01,2013-11-13 13:47:00,
2013-11-13 08:48:00,0.0,0.0,30.15,NW,323,8.3,8.3,0,0.00,,---,0.00,VWS V14.01,2013-11-13 13:48:00,
2013-11-13 08:49:00,0.0,0.0,30.15,North,10,8.3,10.5,0,0.00,,---,0.00,VWS V14.01,2013-11-13 13:49:00,
2013-11-13 08:50:00,0.0,0.0,30.15,NNW,333,7.6,10.5,0,0.00,,---,0.00,VWS V14.01,2013-11-13 13:50:00,
2013-11-13 08:51:00,0.0,0.0,30.15,North,0,11.9,16.8,0,0.00,,---,0.00,VWS V14.01,2013-11-13 13:51:00,
2013-11-13 08:52:00,0.0,0.0,30.15,North,4,10.1,14.1,0,0.00,,---,0.00,VWS V14.01,2013-11-13 13:52:00,
2013-11-13 08:53:00,0.0,0.0,30.15,NW,312,3.1,10.1,0,0.00,,---,0.00,VWS V14.01,2013-11-13 13:53:00,
2013-11-13 08:54:00,0.0,0.0,30.15,WNW,294,7.6,7.6,0,0.00,,---,0.00,VWS V14.01,2013-11-13 13:54:00,
2013-11-13 08:55:00,0.0,0.0,30.15,NW,325,4.9,7.6,0,0.00,,---,0.00,VWS V14.01,2013-11-13 13:55:00,
2013-11-13 08:56:00,0.0,0.0,30.15,North,357,6.3,8.1,0,0.00,,---,0.00,VWS V14.01,2013-11-13 13:56:00,
2013-11-13 08:57:00,0.0,0.0,30.15,WNW,303,5.4,6.3,0,0.00,,---,0.00,VWS V14.01,2013-11-13 13:57:00,
2013-11-13 08:58:00,0.0,0.0,30.15,NW,324,4.0,8.3,0,0.00,,---,0.00,VWS V14.01,2013-11-13 13:58:00,
2013-11-13 08:59:00,0.0,0.0,30.15,NNW,335,5.8,5.8,0,0.00,,---,0.00,VWS V14.01,2013-11-13 13:59:00,
2013-11-13 09:00:00,0.0,0.0,30.15,NW,324,6.3,9.6,0,0.00,,---,0.00,VWS V14.01,2013-11-13 14:00:00,
2013-11-13 09:01:00,0.0,0.0,30.15,NNW,341,4.9,10.1,0,0.00,,---,0.00,VWS V14.01,2013-11-13 14:01:00,
2013-11-13 09:02:00,0.0,0.0,30.15,NW,313,8.3,10.1,0,0.00,,---,0.00,VWS V14.01,2013-11-13 14:02:00,
2013-11-13 09:03:00,0.0,0.0,30.15,NNW,345,8.1,8.3,0,0.00,,---,0.00,VWS V14.01,2013-11-13 14:03:00,
2013-11-13 09:04:00,0.0,0.0,30.15,NW,323,6.3,6.3,0,0.00,,---,0.00,VWS V14.01,2013-11-13 14:04:00,
2013-11-13 09:05:00,0.0,0.0,30.15,NW,316,7.6,7.6,0,0.00,,---,0.00,VWS V14.01,2013-11-13 14:05:00,
2013-11-13 09:06:00,0.0,0.0,30.15,NW,312,7.6,7.6,0,0.00,,---,0.00,VWS V14.01,2013-11-13 14:06:00,
2013-11-13 09:07:00,0.0,0.0,30.15,NW,326,6.3,8.7,0,0.00,,---,0.00,VWS V14.01,2013-11-13 14:07:00,
2013-11-13 09:08:00,0.0,0.0,30.15,NW,320,4.9,6.3,0,0.00,,---,0.00,VWS V14.01,2013-11-13 14:08:00,
2013-11-13 09:09:00,0.0,0.0,30.15,West,265,10.1,10.1,0,0.00,,---,0.00,VWS V14.01,2013-11-13 14:09:00,
2013-11-13 09:10:00,0.0,0.0,30.15,North,353,7.6,10.1,0,0.00,,---,0.00,VWS V14.01,2013-11-13 14:10:00,
2013-11-13 09:11:00,0.0,0.0,30.15,NW,325,7.2,7.6,0,0.00,,---,0.00,VWS V14.01,2013-11-13 14:11:00,
2013-11-13 09:12:00,0.0,0.0,30.15,NW,320,8.3,10.1,0,0.00,,---,0.00,VWS V14.01,2013-11-13 14:12:00,
2013-11-13 09:13:00,0.0,0.0,30.15,North,350,5.8,14.5,0,0.00,,---,0.00,VWS V14.01,2013-11-13 14:13:00,
2013-11-13 09:14:00,0.0,0.0,30.15,NW,315,9.2,9.2,0,0.00,,---,0.00,VWS V14.01,2013-11-13 14:14:00,
2013-11-13 09:15:00,0.0,0.0,30.15,NNE,19,3.1,9.2,0,0.00,,---,0.00,VWS V14.01,2013-11-13 14:15:00,
2013-11-13 09:16:00,0.0,0.0,30.15,NNW,332,4.0,7.6,0,0.00,,---,0.00,VWS V14.01,2013-11-13 14:16:00,
2013-11-13 09:17:00,0.0,0.0,30.15,North,349,10.1,10.1,0,0.00,,---,0.00,VWS V14.01,2013-11-13 14:17:00,
2013-11-13 09:18:00,0.0,0.0,30.15,NNW,329,7.2,10.1,0,0.00,,---,0.00,VWS V14.01,2013-11-13 14:18:00,
2013-11-13 09:19:00,0.0,0.0,30.15,NNE,13,10.1,10.1,0,0.00,,---,0.00,VWS V14.01,2013-11-13 14:19:00,
2013-11-13 09:20:00,0.0,0.0,30.15,NW,326,5.8,10.1,0,0.00,,---,0.00,VWS V14.01,2013-11-13 14:20:00,
2013-11-13 09:21:00,0.0,0.0,30.15,NNE,22,8.1,8.1,0,0.00,,---,0.00,VWS V14.01,2013-11-13 14:21:00,
2013-11-13 09:22:00,0.0,0.0,30.15,NNW,333,11.0,11.0,0,0.00,,---,0.00,VWS V14.01,2013-11-13 14:22:00,
2013-11-13 09:23:00,0.0,0.0,30.15,North,357,5.4,11.0,0,0.00,,---,0.00,VWS V14.01,2013-11-13 14:23:00,
2013-11-13 09:24:00,0.0,0.0,30.15,North,357,8.1,10.1,0,0.00,,---,0.00,VWS V14.01,2013-11-13 14:24:00,
2013-11-13 09:25:00,0.0,0.0,30.15,NNW,327,7.6,11.0,0,0.00,,---,0.00,VWS V14.01,2013-11-13 14:25:00,
2013-11-13 09:26:00,0.0,0.0,30.15,NW,325,8.1,8.1,0,0.00,,---,0.00,VWS V14.01,2013-11-13 14:26:00,
2013-11-13 09:27:00,0.0,0.0,30.15,NNE,24,8.1,10.5,0,0.00,,---,0.00,VWS V14.01,2013-11-13 14:27:00,
2013-11-13 09:28:00,0.0,0.0,30.15,NNE,33,5.4,8.3,0,0.00,,---,0.00,VWS V14.01,2013-11-13 14:28:00,
2013-11-13 09:29:00,0.0,0.0,30.15,NW,321,6.7,6.7,0,0.00,,---,0.00,VWS V14.01,2013-11-13 14:29:00,
2013-11-13 09:30:00,0.0,0.0,30.15,NNW,343,5.8,11.0,0,0.00,,---,0.00,VWS V14.01,2013-11-13 14:30:00,
2013-11-13 09:31:00,0.0,0.0,30.15,NNE,21,6.7,7.6,0,0.00,,---,0.00,VWS V14.01,2013-11-13 14:31:00,
2013-11-13 09:32:00,0.0,0.0,30.15,NW,315,5.4,6.7,0,0.00,,---,0.00,VWS V14.01,2013-11-13 14:32:00,
2013-11-13 09:33:00,0.0,0.0,30.15,North,353,5.8,10.1,0,0.00,,---,0.00,VWS V14.01,2013-11-13 14:33:00,
2013-11-13 09:34:00,0.0,0.0,30.15,North,0,3.6,5.4,0,0.00,,---,0.00,VWS V14.01,2013-11-13 14:34:00,
2013-11-13 09:35:00,0.0,0.0,30.15,North,353,5.4,5.4,0,0.00,,---,0.00,VWS V14.01,2013-11-13 14:35:00,
2013-11-13 09:36:00,0.0,0.0,30.15,NW,322,5.8,5.8,0,0.00,,---,0.00,VWS V14.01,2013-11-13 14:36:00,
2013-11-13 09:37:00,0.0,0.0,30.15,NNW,339,5.4,8.7,0,0.00,,---,0.00,VWS V14.01,2013-11-13 14:37:00,
2013-11-13 09:38:00,0.0,0.0,30.15,NNW,329,5.8,5.8,0,0.00,,---,0.00,VWS V14.01,2013-11-13 14:38:00,
2013-11-13 09:39:00,0.0,0.0,30.15,NW,323,6.3,6.3,0,0.00,,---,0.00,VWS V14.01,2013-11-13 14:39:00,
2013-11-13 09:40:00,0.0,0.0,30.15,NNW,334,2.7,6.3,0,0.00,,---,0.00,VWS V14.01,2013-11-13 14:40:00,
2013-11-13 09:41:00,0.0,0.0,30.15,NNW,340,4.5,5.8,0,0.00,,---,0.00,VWS V14.01,2013-11-13 14:41:00,
2013-11-13 09:42:00,0.0,0.0,30.15,North,0,3.6,5.8,0,0.00,,---,0.00,VWS V14.01,2013-11-13 14:42:00,
2013-11-13 09:43:00,0.0,0.0,30.15,North,353,4.0,5.4,0,0.00,,---,0.00,VWS V14.01,2013-11-13 14:43:00,
2013-11-13 09:44:00,0.0,0.0,30.15,NNW,336,5.4,5.4,0,0.00,,---,0.00,VWS V14.01,2013-11-13 14:44:00,
2013-11-13 09:45:00,0.0,0.0,30.15,NNW,328,2.7,8.1,0,0.00,,---,0.00,VWS V14.01,2013-11-13 14:45:00,
2013-11-13 09:46:00,0.0,0.0,30.15,North,2,4.5,8.3,0,0.00,,---,0.00,VWS V14.01,2013-11-13 14:46:00,
2013-11-13 09:47:00,0.0,0.0,30.15,North,0,7.6,7.6,0,0.00,,---,0.00,VWS V14.01,2013-11-13 14:47:00,
2013-11-13 09:48:00,0.0,0.0,30.15,NW,321,5.8,9.6,0,0.00,,---,0.00,VWS V14.01,2013-11-13 14:48:00,
2013-11-13 09:49:00,0.0,0.0,30.15,North,8,6.3,10.1,0,0.00,,---,0.00,VWS V14.01,2013-11-13 14:49:00,
2013-11-13 09:50:00,0.0,0.0,30.15,NW,324,4.0,6.3,0,0.00,,---,0.00,VWS V14.01,2013-11-13 14:50:00,
2013-11-13 09:51:00,0.0,0.0,30.15,North,9,5.8,8.3,0,0.00,,---,0.00,VWS V14.01,2013-11-13 14:51:00,
2013-11-13 09:52:00,0.0,0.0,30.15,NW,326,8.3,8.3,0,0.00,,---,0.00,VWS V14.01,2013-11-13 14:52:00,
2013-11-13 09:53:00,0.0,0.0,30.15,NNW,346,4.0,8.3,0,0.00,,---,0.00,VWS V14.01,2013-11-13 14:53:00,
2013-11-13 09:54:00,0.0,0.0,30.15,NW,317,5.4,8.3,0,0.00,,---,0.00,VWS V14.01,2013-11-13 14:54:00,
2013-11-13 09:55:00,0.0,0.0,30.15,NNW,339,7.6,9.6,0,0.00,,---,0.00,VWS V14.01,2013-11-13 14:55:00,
2013-11-13 09:56:00,0.0,0.0,30.15,North,2,6.3,7.6,0,0.00,,---,0.00,VWS V14.01,2013-11-13 14:56:00,
2013-11-13 09:57:00,0.0,0.0,30.15,North,0,4.0,6.3,0,0.00,,---,0.00,VWS V14.01,2013-11-13 14:57:00,
2013-11-13 09:58:00,0.0,0.0,30.15,NNW,342,10.1,10.1,0,0.00,,---,0.00,VWS V14.01,2013-11-13 14:58:00,
2013-11-13 09:59:00,0.0,0.0,30.15,North,353,6.3,8.1,0,0.00,,---,0.00,VWS V14.01,2013-11-13 14:59:00,
2013-11-13 10:00:00,0.0,0.0,30.15,NW,322,6.3,8.1,0,0.00,,---,0.00,VWS V14.01,2013-11-13 15:00:00,
2013-11-13 10:01:00,0.0,0.0,30.15,NNW,342,6.3,10.1,0,0.00,,---,0.00,VWS V14.01,2013-11-13 15:01:00,
2013-11-13 10:02:00,0.0,0.0,30.15,North,357,5.8,8.1,0,0.00,,---,0.00,VWS V14.01,2013-11-13 15:02:00,
2013-11-13 10:03:00,0.0,0.0,30.15,NNW,335,3.1,8.1,0,0.00,,---,0.00,VWS V14.01,2013-11-13 15:03:00,
2013-11-13 10:04:00,0.0,0.0,30.15,NNE,30,5.8,5.8,0,0.00,,---,0.00,VWS V14.01,2013-11-13 15:04:00,
2013-11-13 10:05:00,0.0,0.0,30.15,North,353,5.8,5.8,0,0.00,,---,0.00,VWS V14.01,2013-11-13 15:05:00,
2013-11-13 10:06:00,0.0,0.0,30.15,NNW,336,5.8,8.7,0,0.00,,---,0.00,VWS V14.01,2013-11-13 15:06:00,
2013-11-13 10:07:00,0.0,0.0,30.15,NW,309,7.2,8.7,0,0.00,,---,0.00,VWS V14.01,2013-11-13 15:07:00,
2013-11-13 10:08:00,0.0,0.0,30.15,NW,321,5.8,8.1,0,0.00,,---,0.00,VWS V14.01,2013-11-13 15:08:00,
2013-11-13 10:09:00,0.0,0.0,30.15,North,353,5.8,5.8,0,0.00,,---,0.00,VWS V14.01,2013-11-13 15:09:00,
2013-11-13 10:10:00,0.0,0.0,30.15,NNW,333,5.4,5.8,0,0.00,,---,0.00,VWS V14.01,2013-11-13 15:10:00,
2013-11-13 10:11:00,0.0,0.0,30.15,NNW,348,6.3,8.1,0,0.00,,---,0.00,VWS V14.01,2013-11-13 15:11:00,
2013-11-13 10:12:00,0.0,0.0,30.15,North,11,8.1,8.7,0,0.00,,---,0.00,VWS V14.01,2013-11-13 15:12:00,
2013-11-13 10:13:00,0.0,0.0,30.15,NW,314,5.4,8.1,0,0.00,,---,0.00,VWS V14.01,2013-11-13 15:13:00,
2013-11-13 10:14:00,0.0,0.0,30.15,NW,310,5.4,5.4,0,0.00,,---,0.00,VWS V14.01,2013-11-13 15:14:00,
2013-11-13 10:15:00,0.0,0.0,30.15,North,357,8.1,11.0,0,0.00,,---,0.00,VWS V14.01,2013-11-13 15:15:00,
2013-11-13 10:16:00,0.0,0.0,30.15,NW,324,8.3,8.7,0,0.00,,---,0.00,VWS V14.01,2013-11-13 15:16:00,
2013-11-13 10:17:00,0.0,0.0,30.15,NNE,26,8.1,9.6,0,0.00,,---,0.00,VWS V14.01,2013-11-13 15:17:00,
2013-11-13 10:18:00,0.0,0.0,30.15,WNW,295,6.3,8.3,0,0.00,,---,0.00,VWS V14.01,2013-11-13 15:18:00,
2013-11-13 10:19:00,0.0,0.0,30.15,WNW,303,4.0,5.8,0,0.00,,---,0.00,VWS V14.01,2013-11-13 15:19:00,
2013-11-13 10:20:00,0.0,0.0,30.15,NNW,335,3.6,5.8,0,0.00,,---,0.00,VWS V14.01,2013-11-13 15:20:00,
2013-11-13 10:21:00,0.0,0.0,30.15,NNW,337,5.4,5.8,0,0.00,,---,0.00,VWS V14.01,2013-11-13 15:21:00,
2013-11-13 10:22:00,0.0,0.0,30.15,North,2,5.4,8.3,0,0.00,,---,0.00,VWS V14.01,2013-11-13 15:22:00,
2013-11-13 10:23:00,0.0,0.0,30.15,NW,318,4.9,8.3,0,0.00,,---,0.00,VWS V14.01,2013-11-13 15:23:00,
2013-11-13 10:24:00,0.0,0.0,30.15,NW,319,5.4,5.4,0,0.00,,---,0.00,VWS V14.01,2013-11-13 15:24:00,
2013-11-13 10:25:00,0.0,0.0,30.15,NNW,328,5.8,5.8,0,0.00,,---,0.00,VWS V14.01,2013-11-13 15:25:00,
2013-11-13 10:26:00,0.0,0.0,30.15,NW,323,7.6,7.6,0,0.00,,---,0.00,VWS V14.01,2013-11-13 15:26:00,
2013-11-13 10:27:00,0.0,0.0,30.15,NNW,327,5.8,7.6,0,0.00,,---,0.00,VWS V14.01,2013-11-13 15:27:00,
2013-11-13 10:28:00,0.0,0.0,30.15,NNW,338,4.9,9.6,0,0.00,,---,0.00,VWS V14.01,2013-11-13 15:28:00,
2013-11-13 10:29:00,0.0,0.0,30.15,NNE,25,8.7,8.7,0,0.00,,---,0.00,VWS V14.01,2013-11-13 15:29:00,
2013-11-13 10:30:00,0.0,0.0,30.15,North,6,5.8,8.7,0,0.00,,---,0.00,VWS V14.01,2013-11-13 15:30:00,
2013-11-13 10:31:00,0.0,0.0,30.15,NW,319,7.6,7.6,0,0.00,,---,0.00,VWS V14.01,2013-11-13 15:31:00,
2013-11-13 10:32:00,0.0,0.0,30.15,NW,311,11.0,11.0,0,0.00,,---,0.00,VWS V14.01,2013-11-13 15:32:00,
2013-11-13 10:33:00,0.0,0.0,30.15,North,353,8.3,11.0,0,0.00,,---,0.00,VWS V14.01,2013-11-13 15:33:00,
2013-11-13 10:34:00,0.0,0.0,30.15,North,353,7.6,10.1,0,0.00,,---,0.00,VWS V14.01,2013-11-13 15:34:00,
2013-11-13 10:35:00,0.0,0.0,30.15,North,9,5.4,7.6,0,0.00,,---,0.00,VWS V14.01,2013-11-13 15:35:00,
2013-11-13 10:36:00,0.0,0.0,30.15,NW,319,5.4,5.8,0,0.00,,---,0.00,VWS V14.01,2013-11-13 15:36:00,
2013-11-13 10:37:00,0.0,0.0,30.15,NNW,346,8.3,10.1,0,0.00,,---,0.00,VWS V14.01,2013-11-13 15:37:00,
2013-11-13 10:38:00,0.0,0.0,30.15,North,353,4.0,8.3,0,0.00,,---,0.00,VWS V14.01,2013-11-13 15:38:00,
2013-11-13 10:39:00,0.0,0.0,30.15,North,353,5.8,6.7,0,0.00,,---,0.00,VWS V14.01,2013-11-13 15:39:00,
2013-11-13 10:40:00,0.0,0.0,30.15,NNW,338,5.8,8.7,0,0.00,,---,0.00,VWS V14.01,2013-11-13 15:40:00,
2013-11-13 10:41:00,0.0,0.0,30.15,North,353,3.1,8.1,0,0.00,,---,0.00,VWS V14.01,2013-11-13 15:41:00,
2013-11-13 10:42:00,0.0,0.0,30.15,NW,320,4.9,6.7,0,0.00,,---,0.00,VWS V14.01,2013-11-13 15:42:00,
2013-11-13 10:43:00,0.0,0.0,30.15,NW,314,6.3,8.3,0,0.00,,---,0.00,VWS V14.01,2013-11-13 15:43:00,
2013-11-13 10:44:00,0.0,0.0,30.15,NNW,327,8.3,10.5,0,0.00,,---,0.00,VWS V14.01,2013-11-13 15:44:00,
2013-11-13 10:45:00,0.0,0.0,30.15,NE,36,10.1,11.9,0,0.00,,---,0.00,VWS V14.01,2013-11-13 15:45:00,
2013-11-13 10:46:00,0.0,0.0,30.15,North,357,11.0,11.0,0,0.00,,---,0.00,VWS V14.01,2013-11-13 15:46:00,
2013-11-13 10:47:00,0.0,0.0,30.15,NW,320,3.6,11.0,0,0.00,,---,0.00,VWS V14.01,2013-11-13 15:47:00,
2013-11-13 10:48:00,0.0,0.0,30.15,North,353,6.7,8.1,0,0.00,,---,0.00,VWS V14.01,2013-11-13 15:48:00,
2013-11-13 10:49:00,0.0,0.0,30.15,NW,326,4.5,8.7,0,0.00,,---,0.00,VWS V14.01,2013-11-13 15:49:00,
2013-11-13 10:50:00,0.0,0.0,30.15,NW,322,6.3,8.7,0,0.00,,---,0.00,VWS V14.01,2013-11-13 15:50:00,
2013-11-13 10:51:00,0.0,0.0,30.15,WNW,295,3.1,6.3,0,0.00,,---,0.00,VWS V14.01,2013-11-13 15:51:00,
2013-11-13 10:52:00,0.0,0.0,30.15,NNW,328,8.7,8.7,0,0.00,,---,0.00,VWS V14.01,2013-11-13 15:52:00,
2013-11-13 10:53:00,0.0,0.0,30.15,NW,325,6.3,10.1,0,0.00,,---,0.00,VWS V14.01,2013-11-13 15:53:00,
2013-11-13 10:54:00,0.0,0.0,30.15,NW,326,8.1,11.0,0,0.00,,---,0.00,VWS V14.01,2013-11-13 15:54:00,
2013-11-13 10:55:00,0.0,0.0,30.15,NW,322,9.6,9.6,0,0.00,,---,0.00,VWS V14.01,2013-11-13 15:55:00,
2013-11-13 10:56:00,0.0,0.0,30.15,NNW,328,7.6,9.6,0,0.00,,---,0.00,VWS V14.01,2013-11-13 15:56:00,
2013-11-13 10:57:00,0.0,0.0,30.15,North,357,8.3,11.0,0,0.00,,---,0.00,VWS V14.01,2013-11-13 15:57:00,
2013-11-13 10:58:00,0.0,0.0,30.15,NW,321,8.3,8.3,0,0.00,,---,0.00,VWS V14.01,2013-11-13 15:58:00,
2013-11-13 10:59:00,0.0,0.0,30.15,NW,312,5.4,5.8,0,0.00,,---,0.00,VWS V14.01,2013-11-13 15:59:00,
2013-11-13 11:00:00,0.0,0.0,30.15,NW,313,8.7,8.7,0,0.00,,---,0.00,VWS V14.01,2013-11-13 16:00:00,
2013-11-13 11:01:00,0.0,0.0,30.15,NW,311,8.3,8.7,0,0.00,,---,0.00,VWS V14.01,2013-11-13 16:01:00,
2013-11-13 11:02:00,0.0,0.0,30.15,North,4,4.0,11.0,0,0.00,,---,0.00,VWS V14.01,2013-11-13 16:02:00,
2013-11-13 11:03:00,0.0,0.0,30.15,WNW,296,8.3,8.3,0,0.00,,---,0.00,VWS V14.01,2013-11-13 16:03:00,
2013-11-13 11:04:00,0.0,0.0,30.15,North,4,8.3,8.3,0,0.00,,---,0.00,VWS V14.01,2013-11-13 16:04:00,
2013-11-13 11:05:00,0.0,0.0,30.15,NNW,343,6.3,10.1,0,0.00,,---,0.00,VWS V14.01,2013-11-13 16:05:00,
2013-11-13 11:06:00,0.0,0.0,30.15,NW,321,8.1,8.1,0,0.00,,---,0.00,VWS V14.01,2013-11-13 16:06:00,
2013-11-13 11:07:00,0.0,0.0,30.15,NNW,328,4.0,8.3,0,0.00,,---,0.00,VWS V14.01,2013-11-13 16:07:00,
2013-11-13 11:08:00,0.0,0.0,30.15,NW,326,8.3,8.7,0,0.00,,---,0.00,VWS V14.01,2013-11-13 16:08:00,
2013-11-13 11:09:00,0.0,0.0,30.15,NNW,334,6.3,8.7,0,0.00,,---,0.00,VWS V14.01,2013-11-13 16:09:00,
2013-11-13 11:10:00,0.0,0.0,30.15,NW,319,5.8,6.3,0,0.00,,---,0.00,VWS V14.01,2013-11-13 16:10:00,
2013-11-13 11:11:00,0.0,0.0,30.15,North,0,7.2,11.0,0,0.00,,---,0.00,VWS V14.01,2013-11-13 16:11:00,
2013-11-13 11:12:00,0.0,0.0,30.15,NW,323,7.6,8.3,0,0.00,,---,0.00,VWS V14.01,2013-11-13 16:12:00,
2013-11-13 11:13:00,0.0,0.0,30.15,NW,324,12.8,12.8,0,0.00,,---,0.00,VWS V14.01,2013-11-13 16:13:00,
2013-11-13 11:14:00,0.0,0.0,30.15,NW,314,6.3,6.3,0,0.00,,---,0.00,VWS V14.01,2013-11-13 16:14:00,
2013-11-13 11:15:00,0.0,0.0,30.15,NW,309,5.4,8.1,0,0.00,,---,0.00,VWS V14.01,2013-11-13 16:15:00,
2013-11-13 11:16:00,0.0,0.0,30.15,NW,325,3.6,6.3,0,0.00,,---,0.00,VWS V14.01,2013-11-13 16:16:00,
2013-11-13 11:17:00,0.0,0.0,30.15,NW,321,10.1,10.1,0,0.00,,---,0.00,VWS V14.01,2013-11-13 16:17:00,
2013-11-13 11:18:00,0.0,0.0,30.15,NNW,330,5.8,10.1,0,0.00,,---,0.00,VWS V14.01,2013-11-13 16:18:00,
2013-11-13 11:19:00,0.0,0.0,30.15,NNW,337,5.8,6.3,0,0.00,,---,0.00,VWS V14.01,2013-11-13 16:19:00,
2013-11-13 11:20:00,0.0,0.0,30.15,NNW,334,5.4,7.6,0,0.00,,---,0.00,VWS V14.01,2013-11-13 16:20:00,
2013-11-13 11:21:00,0.0,0.0,30.15,NNW,338,7.6,8.3,0,0.00,,---,0.00,VWS V14.01,2013-11-13 16:21:00,
2013-11-13 11:22:00,0.0,0.0,30.15,NNW,329,5.4,8.1,0,0.00,,---,0.00,VWS V14.01,2013-11-13 16:22:00,
2013-11-13 11:23:00,0.0,0.0,30.15,NNW,343,8.1,10.1,0,0.00,,---,0.00,VWS V14.01,2013-11-13 16:23:00,
2013-11-13 11:24:00,0.0,0.0,30.15,NNW,340,5.4,8.1,0,0.00,,---,0.00,VWS V14.01,2013-11-13 16:24:00,
2013-11-13 11:25:00,0.0,0.0,30.15,WNW,296,6.3,8.1,0,0.00,,---,0.00,VWS V14.01,2013-11-13 16:25:00,
2013-11-13 11:26:00,0.0,0.0,30.15,North,353,8.3,8.3,0,0.00,,---,0.00,VWS V14.01,2013-11-13 16:26:00,
2013-11-13 11:27:00,0.0,0.0,30.15,NW,325,10.1,10.1,0,0.00,,---,0.00,VWS V14.01,2013-11-13 16:27:00,
2013-11-13 11:28:00,0.0,0.0,30.15,NW,315,15.4,15.4,0,0.00,,---,0.00,VWS V14.01,2013-11-13 16:28:00,
2013-11-13 11:29:00,0.0,0.0,30.15,NNW,329,8.1,8.1,0,0.00,,---,0.00,VWS V14.01,2013-11-13 16:29:00,
2013-11-13 11:30:00,0.0,0.0,30.15,NNW,330,6.3,8.7,0,0.00,,---,0.00,VWS V14.01,2013-11-13 16:30:00,
2013-11-13 11:31:00,0.0,0.0,30.15,North,357,7.6,8.7,0,0.00,,---,0.00,VWS V14.01,2013-11-13 16:31:00,
2013-11-13 11:32:00,0.0,0.0,30.15,NW,314,15.4,15.4,0,0.00,,---,0.00,VWS V14.01,2013-11-13 16:32:00,
2013-11-13 11:33:00,0.0,0.0,30.15,NNW,329,6.3,15.4,0,0.00,,---,0.00,VWS V14.01,2013-11-13 16:33:00,
2013-11-13 11:34:00,0.0,0.0,30.15,NW,312,8.3,12.8,0,0.00,,---,0.00,VWS V14.01,2013-11-13 16:34:00,
2013-11-13 11:35:00,0.0,0.0,30.15,North,357,8.1,11.0,0,0.00,,---,0.00,VWS V14.01,2013-11-13 16:35:00,
2013-11-13 11:36:00,0.0,0.0,30.15,NW,320,7.6,10.5,0,0.00,,---,0.00,VWS V14.01,2013-11-13 16:36:00,
2013-11-13 11:37:00,0.0,0.0,30.15,North,353,6.7,12.8,0,0.00,,---,0.00,VWS V14.01,2013-11-13 16:37:00,
2013-11-13 11:38:00,0.0,0.0,30.15,NW,304,10.1,12.3,0,0.00,,---,0.00,VWS V14.01,2013-11-13 16:38:00,
2013-11-13 11:39:00,0.0,0.0,30.15,NNW,331,14.5,14.5,0,0.00,,---,0.00,VWS V14.01,2013-11-13 16:39:00,
2013-11-13 11:40:00,0.0,0.0,30.15,NNW,340,12.8,14.5,0,0.00,,---,0.00,VWS V14.01,2013-11-13 16:40:00,
2013-11-13 11:41:00,0.0,0.0,30.15,North,4,8.7,15.0,0,0.00,,---,0.00,VWS V14.01,2013-11-13 16:41:00,
2013-11-13 11:42:00,0.0,0.0,30.15,NNW,342,10.5,10.5,0,0.00,,---,0.00,VWS V14.01,2013-11-13 16:42:00,
2013-11-13 11:43:00,0.0,0.0,30.15,NNW,328,8.7,10.5,0,0.00,,---,0.00,VWS V14.01,2013-11-13 16:43:00,
2013-11-13 11:44:00,0.0,0.0,30.15,NW,326,5.4,12.8,0,0.00,,---,0.00,VWS V14.01,2013-11-13 16:44:00,
2013-11-13 11:45:00,0.0,0.0,30.15,NNE,30,10.1,10.1,0,0.00,,---,0.00,VWS V14.01,2013-11-13 16:45:00,
2013-11-13 11:46:00,0.0,0.0,30.15,NW,315,9.2,12.8,0,0.00,,---,0.00,VWS V14.01,2013-11-13 16:46:00,
2013-11-13 11:47:00,0.0,0.0,30.15,NW,321,10.1,10.1,0,0.00,,---,0.00,VWS V14.01,2013-11-13 16:47:00,
2013-11-13 11:48:00,0.0,0.0,30.15,North,353,13.2,13.2,0,0.00,,---,0.00,VWS V14.01,2013-11-13 16:48:00,
2013-11-13 11:49:00,0.0,0.0,30.15,NW,319,11.0,13.2,0,0.00,,---,0.00,VWS V14.01,2013-11-13 16:49:00,
2013-11-13 11:50:00,0.0,0.0,30.15,NNE,18,8.1,12.8,0,0.00,,---,0.00,VWS V14.01,2013-11-13 16:50:00,
2013-11-13 11:51:00,0.0,0.0,30.15,NNW,338,13.2,13.2,0,0.00,,---,0.00,VWS V14.01,2013-11-13 16:51:00,
2013-11-13 11:52:00,0.0,0.0,30.15,NW,323,5.8,13.2,0,0.00,,---,0.00,VWS V14.01,2013-11-13 16:52:00,
2013-11-13 11:53:00,0.0,0.0,30.15,ENE,70,7.6,7.6,0,0.00,,---,0.00,VWS V14.01,2013-11-13 16:53:00,
2013-11-13 11:54:00,0.0,0.0,30.15,North,357,8.3,9.6,0,0.00,,---,0.00,VWS V14.01,2013-11-13 16:54:00,
2013-11-13 11:55:00,0.0,0.0,30.15,NNW,344,8.1,8.3,0,0.00,,---,0.00,VWS V14.01,2013-11-13 16:55:00,
2013-11-13 11:56:00,0.0,0.0,30.15,North,0,11.0,12.8,0,0.00,,---,0.00,VWS V14.01,2013-11-13 16:56:00,
2013-11-13 11:57:00,0.0,0.0,30.15,North,357,10.1,11.0,0,0.00,,---,0.00,VWS V14.01,2013-11-13 16:57:00,
2013-11-13 11:58:00,0.0,0.0,30.15,North,0,3.6,10.1,0,0.00,,---,0.00,VWS V14.01,2013-11-13 16:58:00,
2013-11-13 11:59:00,0.0,0.0,30.15,NNW,335,8.1,10.1,0,0.00,,---,0.00,VWS V14.01,2013-11-13 16:59:00,
2013-11-13 12:00:00,0.0,0.0,30.15,NNE,24,7.6,8.3,0,0.00,,---,0.00,VWS V14.01,2013-11-13 17:00:00,
2013-11-13 12:01:00,0.0,0.0,30.15,WNW,303,8.7,8.7,0,0.00,,---,0.00,VWS V14.01,2013-11-13 17:01:00,
2013-11-13 12:02:00,0.0,0.0,30.15,NNW,329,6.3,8.7,0,0.00,,---,0.00,VWS V14.01,2013-11-13 17:02:00,
2013-11-13 12:03:00,0.0,0.0,30.15,NW,315,11.0,13.2,0,0.00,,---,0.00,VWS V14.01,2013-11-13 17:03:00,
2013-11-13 12:04:00,0.0,0.0,30.15,NNW,342,8.7,11.9,0,0.00,,---,0.00,VWS V14.01,2013-11-13 17:04:00,
2013-11-13 12:05:00,0.0,0.0,30.15,North,357,8.7,10.1,0,0.00,,---,0.00,VWS V14.01,2013-11-13 17:05:00,
2013-11-13 12:06:00,0.0,0.0,30.15,NNW,332,5.8,11.0,0,0.00,,---,0.00,VWS V14.01,2013-11-13 17:06:00,
2013-11-13 12:07:00,0.0,0.0,30.15,NW,318,10.1,12.8,0,0.00,,---,0.00,VWS V14.01,2013-11-13 17:07:00,
2013-11-13 12:08:00,0.0,0.0,30.15,NW,314,5.8,10.1,0,0.00,,---,0.00,VWS V14.01,2013-11-13 17:08:00,
2013-11-13 12:09:00,0.0,0.0,30.15,NW,325,8.3,8.3,0,0.00,,---,0.00,VWS V14.01,2013-11-13 17:09:00,
2013-11-13 12:10:00,0.0,0.0,30.15,North,357,7.6,10.1,0,0.00,,---,0.00,VWS V14.01,2013-11-13 17:10:00,
2013-11-13 12:11:00,0.0,0.0,30.15,NNW,328,10.1,10.1,0,0.00,,---,0.00,VWS V14.01,2013-11-13 17:11:00,
2013-11-13 12:12:00,0.0,0.0,30.15,NW,312,11.0,12.3,0,0.00,,---,0.00,VWS V14.01,2013-11-13 17:12:00,
2013-11-13 12:13:00,0.0,0.0,30.15,North,357,8.3,11.0,0,0.00,,---,0.00,VWS V14.01,2013-11-13 17:13:00,
2013-11-13 12:14:00,0.0,0.0,30.15,NNW,337,6.3,11.4,0,0.00,,---,0.00,VWS V14.01,2013-11-13 17:14:00,
2013-11-13 12:15:00,0.0,0.0,30.15,North,3,4.0,8.1,0,0.00,,---,0.00,VWS V14.01,2013-11-13 17:15:00,
2013-11-13 12:16:00,0.0,0.0,30.15,NW,321,5.8,5.8,0,0.00,,---,0.00,VWS V14.01,2013-11-13 17:16:00,
2013-11-13 12:17:00,0.0,0.0,30.15,NNW,346,8.1,8.1,0,0.00,,---,0.00,VWS V14.01,2013-11-13 17:17:00,
2013-11-13 12:18:00,0.0,0.0,30.15,North,357,10.5,11.0,0,0.00,,---,0.00,VWS V14.01,2013-11-13 17:18:00,
2013-11-13 12:19:00,0.0,0.0,30.15,North,4,5.8,10.5,0,0.00,,---,0.00,VWS V14.01,2013-11-13 17:19:00,
2013-11-13 12:20:00,0.0,0.0,30.15,NNW,335,8.3,8.7,0,0.00,,---,0.00,VWS V14.01,2013-11-13 17:20:00,
2013-11-13 12:21:00,0.0,0.0,30.15,NE,55,8.3,12.3,0,0.00,,---,0.00,VWS V14.01,2013-11-13 17:21:00,
2013-11-13 12:22:00,0.0,0.0,30.15,NW,304,6.3,11.0,0,0.00,,---,0.00,VWS V14.01,2013-11-13 17:22:00,
2013-11-13 12:23:00,0.0,0.0,30.15,NNE,17,12.3,12.3,0,0.00,,---,0.00,VWS V14.01,2013-11-13 17:23:00,
2013-11-13 12:24:00,0.0,0.0,30.15,NE,35,7.6,12.3,0,0.00,,---,0.00,VWS V14.01,2013-11-13 17:24:00,
2013-11-13 12:25:00,0.0,0.0,30.15,NNW,344,6.3,10.1,0,0.00,,---,0.00,VWS V14.01,2013-11-13 17:25:00,
2013-11-13 12:26:00,0.0,0.0,30.15,North,349,3.6,10.1,0,0.00,,---,0.00,VWS V14.01,2013-11-13 17:26:00,
2013-11-13 12:27:00,0.0,0.0,30.15,NW,317,8.3,8.7,0,0.00,,---,0.00,VWS V14.01,2013-11-13 17:27:00,
2013-11-13 12:28:00,0.0,0.0,30.15,NNE,18,7.6,13.2,0,0.00,,---,0.00,VWS V14.01,2013-11-13 17:28:00,
2013-11-13 12:29:00,0.0,0.0,30.15,WNW,296,8.7,10.1,0,0.00,,---,0.00,VWS V14.01,2013-11-13 17:29:00,
2013-11-13 12:30:00,0.0,0.0,30.15,NNW,345,10.1,10.1,0,0.00,,---,0.00,VWS V14.01,2013-11-13 17:30:00,
2013-11-13 12:31:00,0.0,0.0,30.15,NNE,24,5.8,10.5,0,0.00,,---,0.00,VWS V14.01,2013-11-13 17:31:00,
2013-11-13 12:32:00,0.0,0.0,30.15,NW,320,8.7,13.2,0,0.00,,---,0.00,VWS V14.01,2013-11-13 17:32:00,
2013-11-13 12:33:00,0.0,0.0,30.15,North,353,8.3,13.2,0,0.00,,---,0.00,VWS V14.01,2013-11-13 17:33:00,
2013-11-13 12:34:00,0.0,0.0,30.15,NW,309,5.8,8.3,0,0.00,,---,0.00,VWS V14.01,2013-11-13 17:34:00,
2013-11-13 12:35:00,0.0,0.0,30.15,NW,322,8.7,8.7,0,0.00,,---,0.00,VWS V14.01,2013-11-13 17:35:00,
2013-11-13 12:36:00,0.0,0.0,30.15,North,357,10.5,10.5,0,0.00,,---,0.00,VWS V14.01,2013-11-13 17:36:00,
2013-11-13 12:37:00,0.0,0.0,30.15,NNE,21,8.7,11.0,0,0.00,,---,0.00,VWS V14.01,2013-11-13 17:37:00,
2013-11-13 12:38:00,0.0,0.0,30.15,NW,310,7.6,8.7,0,0.00,,---,0.00,VWS V14.01,2013-11-13 17:38:00,
2013-11-13 12:39:00,0.0,0.0,30.15,WNW,300,10.1,10.5,0,0.00,,---,0.00,VWS V14.01,2013-11-13 17:39:00,
2013-11-13 12:40:00,0.0,0.0,30.15,North,357,8.7,15.0,0,0.00,,---,0.00,VWS V14.01,2013-11-13 17:40:00,
2013-11-13 12:41:00,0.0,0.0,30.15,NNW,335,10.1,10.1,0,0.00,,---,0.00,VWS V14.01,2013-11-13 17:41:00,
2013-11-13 12:42:00,0.0,0.0,30.15,North,1,3.6,10.1,0,0.00,,---,0.00,VWS V14.01,2013-11-13 17:42:00,
2013-11-13 12:43:00,0.0,0.0,30.15,North,9,10.5,10.5,0,0.00,,---,0.00,VWS V14.01,2013-11-13 17:43:00,
2013-11-13 12:44:00,0.0,0.0,30.15,NW,307,7.2,10.5,0,0.00,,---,0.00,VWS V14.01,2013-11-13 17:44:00,
2013-11-13 12:45:00,0.0,0.0,30.15,NNW,336,5.8,8.7,0,0.00,,---,0.00,VWS V14.01,2013-11-13 17:45:00,
2013-11-13 12:46:00,0.0,0.0,30.15,NNW,337,7.6,10.5,0,0.00,,---,0.00,VWS V14.01,2013-11-13 17:46:00,
2013-11-13 12:47:00,0.0,0.0,30.15,North,8,4.0,8.1,0,0.00,,---,0.00,VWS V14.01,2013-11-13 17:47:00,
2013-11-13 12:48:00,0.0,0.0,30.15,NW,316,9.6,9.6,0,0.00,,---,0.00,VWS V14.01,2013-11-13 17:48:00,
2013-11-13 12:49:00,0.0,0.0,30.15,NNE,16,6.3,9.6,0,0.00,,---,0.00,VWS V14.01,2013-11-13 17:49:00,
2013-11-13 12:50:00,0.0,0.0,30.15,North,357,10.1,11.0,0,0.00,,---,0.00,VWS V14.01,2013-11-13 17:50:00,
2013-11-13 12:51:00,0.0,0.0,30.15,WNW,297,4.0,11.0,0,0.00,,---,0.00,VWS V14.01,2013-11-13 17:51:00,
2013-11-13 12:52:00,0.0,0.0,30.15,North,0,4.9,4.9,0,0.00,,---,0.00,VWS V14.01,2013-11-13 17:52:00,
2013-11-13 12:53:00,0.0,0.0,30.15,NNW,343,3.6,10.1,0,0.00,,---,0.00,VWS V14.01,2013-11-13 17:53:00,
2013-11-13 12:54:00,0.0,0.0,30.15,NNW,330,6.7,8.7,0,0.00,,---,0.00,VWS V14.01,2013-11-13 17:54:00,
2013-11-13 12:55:00,0.0,0.0,30.15,NNE,25,6.3,7.6,0,0.00,,---,0.00,VWS V14.01,2013-11-13 17:55:00,
2013-11-13 12:56:00,0.0,0.0,30.15,North,0,5.8,6.3,0,0.00,,---,0.00,VWS V14.01,2013-11-13 17:56:00,
2013-11-13 12:57:00,0.0,0.0,30.15,WNW,300,4.0,5.8,0,0.00,,---,0.00,VWS V14.01,2013-11-13 17:57:00,
2013-11-13 12:58:00,0.0,0.0,30.15,North,353,5.4,5.4,0,0.00,,---,0.00,VWS V14.01,2013-11-13 17:58:00,
2013-11-13 12:59:00,0.0,0.0,30.15,NNW,336,5.8,10.1,0,0.00,,---,0.00,VWS V14.01,2013-11-13 17:59:00,
2013-11-13 13:00:00,0.0,0.0,30.15,NNE,21,6.3,13.2,0,0.00,,---,0.00,VWS V14.01,2013-11-13 18:00:00,
2013-11-13 13:01:00,0.0,0.0,30.15,WNW,288,3.6,7.6,0,0.00,,---,0.00,VWS V14.01,2013-11-13 18:01:00,
2013-11-13 13:02:00,0.0,0.0,30.15,NW,310,8.1,8.1,0,0.00,,---,0.00,VWS V14.01,2013-11-13 18:02:00,
2013-11-13 13:03:00,0.0,0.0,30.15,NNE,17,3.1,8.1,0,0.00,,---,0.00,VWS V14.01,2013-11-13 18:03:00,
2013-11-13 13:04:00,0.0,0.0,30.15,North,0,5.4,5.4,0,0.00,,---,0.00,VWS V14.01,2013-11-13 18:04:00,
2013-11-13 13:05:00,0.0,0.0,30.15,NW,316,7.2,7.2,0,0.00,,---,0.00,VWS V14.01,2013-11-13 18:05:00,
2013-11-13 13:06:00,0.0,0.0,30.15,NNW,327,4.9,8.1,0,0.00,,---,0.00,VWS V14.01,2013-11-13 18:06:00,
2013-11-13 13:07:00,0.0,0.0,30.15,North,357,11.0,11.0,0,0.00,,---,0.00,VWS V14.01,2013-11-13 18:07:00,
2013-11-13 13:08:00,0.0,0.0,30.15,NNE,21,8.1,11.0,0,0.00,,---,0.00,VWS V14.01,2013-11-13 18:08:00,
2013-11-13 13:09:00,0.0,0.0,30.15,NNE,17,6.3,8.7,0,0.00,,---,0.00,VWS V14.01,2013-11-13 18:09:00,
2013-11-13 13:10:00,0.0,0.0,30.15,WNW,292,10.1,10.1,0,0.00,,---,0.00,VWS V14.01,2013-11-13 18:10:00,
2013-11-13 13:11:00,0.0,0.0,30.15,WNW,291,8.3,10.1,0,0.00,,---,0.00,VWS V14.01,2013-11-13 18:11:00,
2013-11-13 13:12:00,0.0,0.0,30.15,North,349,6.3,8.3,0,0.00,,---,0.00,VWS V14.01,2013-11-13 18:12:00,
2013-11-13 13:13:00,0.0,0.0,30.15,North,8,6.3,7.6,0,0.00,,---,0.00,VWS V14.01,2013-11-13 18:13:00,
2013-11-13 13:14:00,0.0,0.0,30.15,NNW,339,0.0,6.3,0,0.00,,---,0.00,VWS V14.01,2013-11-13 18:14:00,
2013-11-13 13:15:00,0.0,0.0,30.15,NW,315,10.1,12.3,0,0.00,,---,0.00,VWS V14.01,2013-11-13 18:15:00,
2013-11-13 13:16:00,0.0,0.0,30.15,NNW,346,7.6,10.1,0,0.00,,---,0.00,VWS V14.01,2013-11-13 18:16:00,
2013-11-13 13:17:00,0.0,0.0,30.15,NNE,32,4.0,8.3,0,0.00,,---,0.00,VWS V14.01,2013-11-13 18:17:00,
2013-11-13 13:18:00,0.0,0.0,30.15,North,1,3.1,5.4,0,0.00,,---,0.00,VWS V14.01,2013-11-13 18:18:00,
2013-11-13 13:19:00,0.0,0.0,30.15,WNW,302,6.3,6.3,0,0.00,,---,0.00,VWS V14.01,2013-11-13 18:19:00,
2013-11-13 13:20:00,0.0,0.0,30.15,West,261,7.6,8.7,0,0.00,,---,0.00,VWS V14.01,2013-11-13 18:20:00,
2013-11-13 13:21:00,0.0,0.0,30.15,North,357,5.8,8.7,0,0.00,,---,0.00,VWS V14.01,2013-11-13 18:21:00,
2013-11-13 13:22:00,0.0,0.0,30.15,NNW,344,3.6,5.8,0,0.00,,---,0.00,VWS V14.01,2013-11-13 18:22:00,
2013-11-13 13:23:00,0.0,0.0,30.15,NE,48,2.7,4.9,0,0.00,,---,0.00,VWS V14.01,2013-11-13 18:23:00,
2013-11-13 13:24:00,0.0,0.0,30.15,NNW,337,4.9,4.9,0,0.00,,---,0.00,VWS V14.01,2013-11-13 18:24:00,
2013-11-13 13:25:00,0.0,0.0,30.15,NE,37,3.6,8.3,0,0.00,,---,0.00,VWS V14.01,2013-11-13 18:25:00,
2013-11-13 13:26:00,0.0,0.0,30.15,NNE,28,5.4,7.6,0,0.00,,---,0.00,VWS V14.01,2013-11-13 18:26:00,
2013-11-13 13:27:00,0.0,0.0,30.15,North,0,5.8,5.8,0,0.00,,---,0.00,VWS V14.01,2013-11-13 18:27:00,
2013-11-13 13:28:00,0.0,0.0,30.15,NNW,339,4.0,5.8,0,0.00,,---,0.00,VWS V14.01,2013-11-13 18:28:00,
2013-11-13 13:29:00,0.0,0.0,30.15,NNE,25,4.0,5.4,0,0.00,,---,0.00,VWS V14.01,2013-11-13 18:29:00,
2013-11-13 13:30:00,0.0,0.0,30.15,West,280,4.0,5.8,0,0.00,,---,0.00,VWS V14.01,2013-11-13 18:30:00,
2013-11-13 13:31:00,0.0,0.0,30.15,North,0,2.7,4.0,0,0.00,,---,0.00,VWS V14.01,2013-11-13 18:31:00,
2013-11-13 13:32:00,0.0,0.0,30.15,NW,306,7.6,10.1,0,0.00,,---,0.00,VWS V14.01,2013-11-13 18:32:00,
2013-11-13 13:33:00,0.0,0.0,30.15,WNW,293,6.3,7.6,0,0.00,,---,0.00,VWS V14.01,2013-11-13 18:33:00,
2013-11-13 13:34:00,0.0,0.0,30.15,NNW,334,5.4,6.3,0,0.00,,---,0.00,VWS V14.01,2013-11-13 18:34:00,
2013-11-13 13:35:00,0.0,0.0,30.15,NW,308,8.1,8.1,0,0.00,,---,0.00,VWS V14.01,2013-11-13 18:35:00,
2013-11-13 13:36:00,0.0,0.0,30.15,North,3,3.1,8.3,0,0.00,,---,0.00,VWS V14.01,2013-11-13 18:36:00,
2013-11-13 13:37:00,0.0,0.0,30.15,NNE,12,3.1,5.8,0,0.00,,---,0.00,VWS V14.01,2013-11-13 18:37:00,
2013-11-13 13:38:00,0.0,0.0,30.15,NW,318,8.7,8.7,0,0.00,,---,0.00,VWS V14.01,2013-11-13 18:38:00,
2013-11-13 13:39:00,0.0,0.0,30.15,NNW,345,9.6,9.6,0,0.00,,---,0.00,VWS V14.01,2013-11-13 18:39:00,
2013-11-13 13:40:00,0.0,0.0,30.15,North,357,4.0,9.6,0,0.00,,---,0.00,VWS V14.01,2013-11-13 18:40:00,
2013-11-13 13:41:00,0.0,0.0,30.15,WNW,297,5.8,5.8,0,0.00,,---,0.00,VWS V14.01,2013-11-13 18:41:00,
2013-11-13 13:42:00,0.0,0.0,30.15,WNW,287,5.4,11.4,0,0.00,,---,0.00,VWS V14.01,2013-11-13 18:42:00,
2013-11-13 13:43:00,0.0,0.0,30.15,West,264,5.4,7.6,0,0.00,,---,0.00,VWS V14.01,2013-11-13 18:43:00,
2013-11-13 13:44:00,0.0,0.0,30.15,WNW,303,6.3,8.7,0,0.00,,---,0.00,VWS V14.01,2013-11-13 18:44:00,
2013-11-13 13:45:00,0.0,0.0,30.15,NE,34,8.7,8.7,0,0.00,,---,0.00,VWS V14.01,2013-11-13 18:45:00,
2013-11-13 13:46:00,0.0,0.0,30.15,NNW,335,5.4,8.7,0,0.00,,---,0.00,VWS V14.01,2013-11-13 18:46:00,
2013-11-13 13:47:00,0.0,0.0,30.15,NNE,17,8.1,11.0,0,0.00,,---,0.00,VWS V14.01,2013-11-13 18:47:00,
2013-11-13 13:48:00,0.0,0.0,30.15,NE,41,15.0,15.0,0,0.00,,---,0.00,VWS V14.01,2013-11-13 18:48:00,
2013-11-13 13:49:00,0.0,0.0,30.15,NNW,334,4.0,15.0,0,0.00,,---,0.00,VWS V14.01,2013-11-13 18:49:00,
2013-11-13 13:50:00,0.0,0.0,30.15,NNE,15,4.9,8.1,0,0.00,,---,0.00,VWS V14.01,2013-11-13 18:50:00,
2013-11-13 13:51:00,0.0,0.0,30.15,NNE,23,5.8,10.1,0,0.00,,---,0.00,VWS V14.01,2013-11-13 18:51:00,
2013-11-13 13:52:00,0.0,0.0,30.15,North,2,4.0,10.1,0,0.00,,---,0.00,VWS V14.01,2013-11-13 18:52:00,
2013-11-13 13:53:00,0.0,0.0,30.15,NW,311,10.5,10.5,0,0.00,,---,0.00,VWS V14.01,2013-11-13 18:53:00,
2013-11-13 13:54:00,0.0,0.0,30.15,North,357,5.8,10.5,0,0.00,,---,0.00,VWS V14.01,2013-11-13 18:54:00,
2013-11-13 13:55:00,0.0,0.0,30.15,North,357,3.1,9.2,0,0.00,,---,0.00,VWS V14.01,2013-11-13 18:55:00,
2013-11-13 13:56:00,0.0,0.0,30.15,North,353,4.9,5.8,0,0.00,,---,0.00,VWS V14.01,2013-11-13 18:56:00,
2013-11-13 13:57:00,0.0,0.0,30.15,NW,314,6.3,6.3,0,0.00,,---,0.00,VWS V14.01,2013-11-13 18:57:00,
2013-11-13 13:58:00,0.0,0.0,30.15,ENE,57,2.7,11.0,0,0.00,,---,0.00,VWS V14.01,2013-11-13 18:58:00,
2013-11-13 13:59:00,0.0,0.0,30.15,NE,38,3.1,3.1,0,0.00,,---,0.00,VWS V14.01,2013-11-13 18:59:00,
2013-11-13 14:00:00,0.0,0.0,30.15,NNE,15,5.4,8.3,0,0.00,,---,0.00,VWS V14.01,2013-11-13 19:00:00,
2013-11-13 14:01:00,0.0,0.0,30.15,North,4,4.0,6.3,0,0.00,,---,0.00,VWS V14.01,2013-11-13 19:01:00,
2013-11-13 14:02:00,0.0,0.0,30.15,WNW,289,8.3,8.3,0,0.00,,---,0.00,VWS V14.01,2013-11-13 19:02:00,
2013-11-13 14:03:00,0.0,0.0,30.15,NNW,339,4.0,8.3,0,0.00,,---,0.00,VWS V14.01,2013-11-13 19:03:00,
2013-11-13 14:04:00,0.0,0.0,30.15,NNW,344,5.4,6.7,0,0.00,,---,0.00,VWS V14.01,2013-11-13 19:04:00,
2013-11-13 14:05:00,0.0,0.0,30.15,North,357,5.4,8.3,0,0.00,,---,0.00,VWS V14.01,2013-11-13 19:05:00,
2013-11-13 14:06:00,0.0,0.0,30.15,NNE,19,4.9,10.1,0,0.00,,---,0.00,VWS V14.01,2013-11-13 19:06:00,
2013-11-13 14:07:00,0.0,0.0,30.15,North,0,2.7,4.9,0,0.00,,---,0.00,VWS V14.01,2013-11-13 19:07:00,
2013-11-13 14:08:00,0.0,0.0,30.15,NNW,342,8.3,10.5,0,0.00,,---,0.00,VWS V14.01,2013-11-13 19:08:00,
2013-11-13 14:09:00,0.0,0.0,30.15,North,8,8.3,8.7,0,0.00,,---,0.00,VWS V14.01,2013-11-13 19:09:00,
2013-11-13 14:10:00,0.0,0.0,30.15,NNE,28,6.3,8.1,0,0.00,,---,0.00,VWS V14.01,2013-11-13 19:10:00,
2013-11-13 14:11:00,0.0,0.0,30.15,WNW,282,4.0,7.2,0,0.00,,---,0.00,VWS V14.01,2013-11-13 19:11:00,
2013-11-13 14:12:00,0.0,0.0,30.15,NNE,12,5.4,6.7,0,0.00,,---,0.00,VWS V14.01,2013-11-13 19:12:00,
2013-11-13 14:13:00,0.0,0.0,30.15,West,264,7.6,7.6,0,0.00,,---,0.00,VWS V14.01,2013-11-13 19:13:00,
2013-11-13 14:14:00,0.0,0.0,30.15,North,353,5.4,7.6,0,0.00,,---,0.00,VWS V14.01,2013-11-13 19:14:00,
2013-11-13 14:15:00,0.0,0.0,30.15,NNW,343,2.2,5.8,0,0.00,,---,0.00,VWS V14.01,2013-11-13 19:15:00,
2013-11-13 14:16:00,0.0,0.0,30.15,NNW,332,6.3,6.3,0,0.00,,---,0.00,VWS V14.01,2013-11-13 19:16:00,
2013-11-13 14:17:00,0.0,0.0,30.15,NW,323,3.6,8.3,0,0.00,,---,0.00,VWS V14.01,2013-11-13 19:17:00,
2013-11-13 14:18:00,0.0,0.0,30.15,NW,314,6.3,8.7,0,0.00,,---,0.00,VWS V14.01,2013-11-13 19:18:00,
2013-11-13 14:19:00,0.0,0.0,30.15,North,357,6.3,6.3,0,0.00,,---,0.00,VWS V14.01,2013-11-13 19:19:00,
2013-11-13 14:20:00,0.0,0.0,30.15,NE,36,6.3,8.7,0,0.00,,---,0.00,VWS V14.01,2013-11-13 19:20:00,
2013-11-13 14:21:00,0.0,0.0,30.15,NNW,346,5.4,8.1,0,0.00,,---,0.00,VWS V14.01,2013-11-13 19:21:00,
2013-11-13 14:22:00,0.0,0.0,30.15,WNW,294,3.1,6.3,0,0.00,,---,0.00,VWS V14.01,2013-11-13 19:22:00,
2013-11-13 14:23:00,0.0,0.0,30.15,NNW,348,5.8,5.8,0,0.00,,---,0.00,VWS V14.01,2013-11-13 19:23:00,
2013-11-13 14:24:00,0.0,0.0,30.15,WNW,298,9.2,9.2,0,0.00,,---,0.00,VWS V14.01,2013-11-13 19:24:00,
2013-11-13 14:25:00,0.0,0.0,30.15,NW,322,8.3,8.3,0,0.00,,---,0.00,VWS V14.01,2013-11-13 19:25:00,
2013-11-13 14:26:00,0.0,0.0,30.15,NNE,12,8.7,9.2,0,0.00,,---,0.00,VWS V14.01,2013-11-13 19:26:00,
2013-11-13 14:27:00,0.0,0.0,30.15,WNW,291,5.4,13.6,0,0.00,,---,0.00,VWS V14.01,2013-11-13 19:27:00,
2013-11-13 14:28:00,0.0,0.0,30.15,NW,326,4.0,5.8,0,0.00,,---,0.00,VWS V14.01,2013-11-13 19:28:00,
2013-11-13 14:29:00,0.0,0.0,30.15,North,353,7.6,7.6,0,0.00,,---,0.00,VWS V14.01,2013-11-13 19:29:00,
2013-11-13 14:30:00,0.0,0.0,30.15,NNW,334,10.1,15.4,0,0.00,,---,0.00,VWS V14.01,2013-11-13 19:30:00,
2013-11-13 14:31:00,0.0,0.0,30.15,North,357,5.8,10.1,0,0.00,,---,0.00,VWS V14.01,2013-11-13 19:31:00,
2013-11-13 14:32:00,0.0,0.0,30.15,West,265,3.6,12.8,0,0.00,,---,0.00,VWS V14.01,2013-11-13 19:32:00,
2013-11-13 14:33:00,0.0,0.0,30.15,North,7,4.0,8.3,0,0.00,,---,0.00,VWS V14.01,2013-11-13 19:33:00,
2013-11-13 14:34:00,0.0,0.0,30.15,NNW,341,3.1,6.3,0,0.00,,---,0.00,VWS V14.01,2013-11-13 19:34:00,
2013-11-13 14:35:00,0.0,0.0,30.15,NNE,25,10.5,12.8,0,0.00,,---,0.00,VWS V14.01,2013-11-13 19:35:00,
2013-11-13 14:36:00,0.0,0.0,30.15,North,9,11.0,11.0,0,0.00,,---,0.00,VWS V14.01,2013-11-13 19:36:00,
2013-11-13 14:37:00,0.0,0.0,30.15,NW,305,10.1,11.0,0,0.00,,---,0.00,VWS V14.01,2013-11-13 19:37:00,
2013-11-13 14:38:00,0.0,0.0,30.15,NE,36,7.6,12.8,0,0.00,,---,0.00,VWS V14.01,2013-11-13 19:38:00,
2013-11-13 14:39:00,0.0,0.0,30.15,NW,323,6.3,8.1,0,0.00,,---,0.00,VWS V14.01,2013-11-13 19:39:00,
2013-11-13 14:40:00,0.0,0.0,30.15,NNE,19,5.8,5.8,0,0.00,,---,0.00,VWS V14.01,2013-11-13 19:40:00,
2013-11-13 14:41:00,0.0,0.0,30.12,North,2,8.7,8.7,0,0.00,,---,0.00,VWS V14.01,2013-11-13 19:41:00,
2013-11-13 14:42:00,0.0,0.0,30.12,North,353,7.6,10.1,0,0.00,,---,0.00,VWS V14.01,2013-11-13 19:42:00,
2013-11-13 14:43:00,0.0,0.0,30.12,NNE,17,6.3,8.1,0,0.00,,---,0.00,VWS V14.01,2013-11-13 19:43:00,
2013-11-13 14:44:00,0.0,0.0,30.12,WNW,290,5.8,6.3,0,0.00,,---,0.00,VWS V14.01,2013-11-13 19:44:00,
2013-11-13 14:45:00,0.0,0.0,30.12,North,8,8.1,8.1,0,0.00,,---,0.00,VWS V14.01,2013-11-13 19:45:00,
2013-11-13 14:46:00,0.0,0.0,30.12,NNE,26,8.1,9.6,0,0.00,,---,0.00,VWS V14.01,2013-11-13 19:46:00,
2013-11-13 14:47:00,0.0,0.0,30.12,North,0,13.2,13.2,0,0.00,,---,0.00,VWS V14.01,2013-11-13 19:47:00,
2013-11-13 14:48:00,0.0,0.0,30.12,WNW,301,8.7,15.0,0,0.00,,---,0.00,VWS V14.01,2013-11-13 19:48:00,
2013-11-13 14:49:00,0.0,0.0,30.12,NW,307,3.1,8.7,0,0.00,,---,0.00,VWS V14.01,2013-11-13 19:49:00,
2013-11-13 14:50:00,0.0,0.0,30.12,North,0,5.8,7.6,0,0.00,,---,0.00,VWS V14.01,2013-11-13 19:50:00,
2013-11-13 14:51:00,0.0,0.0,30.12,NNE,30,8.3,11.9,0,0.00,,---,0.00,VWS V14.01,2013-11-13 19:51:00,
2013-11-13 14:52:00,0.0,0.0,30.12,North,11,5.4,8.3,0,0.00,,---,0.00,VWS V14.01,2013-11-13 19:52:00,
2013-11-13 14:53:00,0.0,0.0,30.12,NW,317,7.6,8.1,0,0.00,,---,0.00,VWS V14.01,2013-11-13 19:53:00,
2013-11-13 14:54:00,0.0,0.0,30.12,WNW,284,7.6,8.3,0,0.00,,---,0.00,VWS V14.01,2013-11-13 19:54:00,
2013-11-13 14:55:00,0.0,0.0,30.12,East,87,5.8,8.3,0,0.00,,---,0.00,VWS V14.01,2013-11-13 19:55:00,
2013-11-13 14:56:00,0.0,0.0,30.15,NNE,23,5.8,10.5,0,0.00,,---,0.00,VWS V14.01,2013-11-13 19:56:00,
2013-11-13 14:57:00,0.0,0.0,30.15,NNE,27,5.4,7.6,0,0.00,,---,0.00,VWS V14.01,2013-11-13 19:57:00,
2013-11-13 14:58:00,0.0,0.0,30.15,NW,317,8.7,10.5,0,0.00,,---,0.00,VWS V14.01,2013-11-13 19:58:00,
2013-11-13 14:59:00,0.0,0.0,30.15,NW,309,6.3,9.6,0,0.00,,---,0.00,VWS V14.01,2013-11-13 19:59:00,
2013-11-13 15:00:00,0.0,0.0,30.15,North,349,5.4,6.3,0,0.00,,---,0.00,VWS V14.01,2013-11-13 20:00:00,
2013-11-13 15:01:00,0.0,0.0,30.15,NW,308,8.1,8.1,0,0.00,,---,0.00,VWS V14.01,2013-11-13 20:01:00,
2013-11-13 15:02:00,0.0,0.0,30.15,North,1,8.7,8.7,0,0.00,,---,0.00,VWS V14.01,2013-11-13 20:02:00,
2013-11-13 15:03:00,0.0,0.0,30.15,NNE,32,6.3,10.5,0,0.00,,---,0.00,VWS V14.01,2013-11-13 20:03:00,
2013-11-13 15:04:00,0.0,0.0,30.15,NNE,18,4.0,8.3,0,0.00,,---,0.00,VWS V14.01,2013-11-13 20:04:00,
2013-11-13 15:05:00,0.0,0.0,30.15,North,0,12.8,12.8,0,0.00,,---,0.00,VWS V14.01,2013-11-13 20:05:00,
2013-11-13 15:06:00,0.0,0.0,30.15,NNE,16,8.7,12.8,0,0.00,,---,0.00,VWS V14.01,2013-11-13 20:06:00,
2013-11-13 15:07:00,0.0,0.0,30.15,NW,315,5.8,10.5,0,0.00,,---,0.00,VWS V14.01,2013-11-13 20:07:00,
2013-11-13 15:08:00,0.0,0.0,30.15,NW,315,11.0,11.0,0,0.00,,---,0.00,VWS V14.01,2013-11-13 20:08:00,
2013-11-13 15:09:00,0.0,0.0,30.15,NNE,16,11.0,11.0,0,0.00,,---,0.00,VWS V14.01,2013-11-13 20:09:00,
2013-11-13 15:10:00,0.0,0.0,30.15,North,0,3.6,11.0,0,0.00,,---,0.00,VWS V14.01,2013-11-13 20:10:00,
2013-11-13 15:11:00,0.0,0.0,30.15,NNE,27,5.4,8.1,0,0.00,,---,0.00,VWS V14.01,2013-11-13 20:11:00,
2013-11-13 15:12:00,0.0,0.0,30.15,NNW,335,3.6,7.6,0,0.00,,---,0.00,VWS V14.01,2013-11-13 20:12:00,
2013-11-13 15:13:00,0.0,0.0,30.15,NNW,341,8.7,10.5,0,0.00,,---,0.00,VWS V14.01,2013-11-13 20:13:00,
2013-11-13 15:14:00,0.0,0.0,30.15,NW,318,6.7,10.5,0,0.00,,---,0.00,VWS V14.01,2013-11-13 20:14:00,
2013-11-13 15:15:00,0.0,0.0,30.15,NNW,343,11.0,11.0,0,0.00,,---,0.00,VWS V14.01,2013-11-13 20:15:00,
2013-11-13 15:16:00,0.0,0.0,30.15,North,8,11.0,11.0,0,0.00,,---,0.00,VWS V14.01,2013-11-13 20:16:00,
2013-11-13 15:17:00,0.0,0.0,30.15,NW,314,5.8,11.0,0,0.00,,---,0.00,VWS V14.01,2013-11-13 20:17:00,
2013-11-13 15:18:00,0.0,0.0,30.15,NW,313,6.3,7.6,0,0.00,,---,0.00,VWS V14.01,2013-11-13 20:18:00,
2013-11-13 15:19:00,0.0,0.0,30.15,North,8,5.8,7.6,0,0.00,,---,0.00,VWS V14.01,2013-11-13 20:19:00,
2013-11-13 15:20:00,0.0,0.0,30.15,NNW,334,3.6,7.6,0,0.00,,---,0.00,VWS V14.01,2013-11-13 20:20:00,
2013-11-13 15:21:00,0.0,0.0,30.15,North,1,4.0,8.3,0,0.00,,---,0.00,VWS V14.01,2013-11-13 20:21:00,
2013-11-13 15:22:00,0.0,0.0,30.15,NNE,30,5.8,5.8,0,0.00,,---,0.00,VWS V14.01,2013-11-13 20:22:00,
2013-11-13 15:23:00,0.0,0.0,30.15,North,353,10.5,13.2,0,0.00,,---,0.00,VWS V14.01,2013-11-13 20:23:00,
2013-11-13 15:24:00,0.0,0.0,30.15,NW,322,4.9,13.2,0,0.00,,---,0.00,VWS V14.01,2013-11-13 20:24:00,
2013-11-13 15:25:00,0.0,0.0,30.15,West,278,5.4,5.4,0,0.00,,---,0.00,VWS V14.01,2013-11-13 20:25:00,
2013-11-13 15:26:00,0.0,0.0,30.15,NW,319,8.7,15.0,0,0.00,,---,0.00,VWS V14.01,2013-11-13 20:26:00,
2013-11-13 15:27:00,0.0,0.0,30.15,North,357,5.8,11.0,0,0.00,,---,0.00,VWS V14.01,2013-11-13 20:27:00,
2013-11-13 15:28:00,0.0,0.0,30.15,NNW,338,12.8,12.8,0,0.00,,---,0.00,VWS V14.01,2013-11-13 20:28:00,
2013-11-13 15:29:00,0.0,0.0,30.15,NW,317,8.1,12.8,0,0.00,,---,0.00,VWS V14.01,2013-11-13 20:29:00,
2013-11-13 15:30:00,0.0,0.0,30.15,North,1,3.6,8.1,0,0.00,,---,0.00,VWS V14.01,2013-11-13 20:30:00,
2013-11-13 15:31:00,0.0,0.0,30.15,NNW,341,4.9,7.6,0,0.00,,---,0.00,VWS V14.01,2013-11-13 20:31:00,
2013-11-13 15:32:00,0.0,0.0,30.15,NNW,334,10.1,11.0,0,0.00,,---,0.00,VWS V14.01,2013-11-13 20:32:00,
2013-11-13 15:33:00,0.0,0.0,30.15,NW,320,11.4,11.4,0,0.00,,---,0.00,VWS V14.01,2013-11-13 20:33:00,
2013-11-13 15:34:00,0.0,0.0,30.15,North,7,10.1,11.4,0,0.00,,---,0.00,VWS V14.01,2013-11-13 20:34:00,
2013-11-13 15:35:00,0.0,0.0,30.15,NE,45,4.9,10.1,0,0.00,,---,0.00,VWS V14.01,2013-11-13 20:35:00,
2013-11-13 15:36:00,0.0,0.0,30.15,NW,322,6.3,6.3,0,0.00,,---,0.00,VWS V14.01,2013-11-13 20:36:00,
2013-11-13 15:37:00,0.0,0.0,30.15,NNE,26,4.9,9.6,0,0.00,,---,0.00,VWS V14.01,2013-11-13 20:37:00,
2013-11-13 15:38:00,0.0,0.0,30.15,NNE,16,3.1,6.3,0,0.00,,---,0.00,VWS V14.01,2013-11-13 20:38:00,
2013-11-13 15:39:00,0.0,0.0,30.15,North,353,5.4,6.3,0,0.00,,---,0.00,VWS V14.01,2013-11-13 20:39:00,
2013-11-13 15:40:00,0.0,0.0,30.15,North,9,5.8,6.3,0,0.00,,---,0.00,VWS V14.01,2013-11-13 20:40:00,
2013-11-13 15:41:00,0.0,0.0,30.15,North,10,5.8,7.6,0,0.00,,---,0.00,VWS V14.01,2013-11-13 20:41:00,
2013-11-13 15:42:00,0.0,0.0,30.15,NW,320,5.4,6.3,0,0.00,,---,0.00,VWS V14.01,2013-11-13 20:42:00,
2013-11-13 15:43:00,0.0,0.0,30.15,NW,318,4.0,8.1,0,0.00,,---,0.00,VWS V14.01,2013-11-13 20:43:00,
2013-11-13 15:44:00,0.0,0.0,30.15,NNE,30,7.2,8.1,0,0.00,,---,0.00,VWS V14.01,2013-11-13 20:44:00,
2013-11-13 15:45:00,0.0,0.0,30.15,North,7,7.6,7.6,0,0.00,,---,0.00,VWS V14.01,2013-11-13 20:45:00,
2013-11-13 15:46:00,0.0,0.0,30.15,North,8,12.3,12.3,0,0.00,,---,0.00,VWS V14.01,2013-11-13 20:46:00,
2013-11-13 15:47:00,0.0,0.0,30.15,NNE,32,5.8,12.3,0,0.00,,---,0.00,VWS V14.01,2013-11-13 20:47:00,
2013-11-13 15:48:00,0.0,0.0,30.15,NW,324,4.0,10.5,0,0.00,,---,0.00,VWS V14.01,2013-11-13 20:48:00,
2013-11-13 15:49:00,0.0,0.0,30.15,North,353,8.3,10.5,0,0.00,,---,0.00,VWS V14.01,2013-11-13 20:49:00,
2013-11-13 15:50:00,0.0,0.0,30.15,NNW,343,8.1,8.3,0,0.00,,---,0.00,VWS V14.01,2013-11-13 20:50:00,
2013-11-13 15:51:00,0.0,0.0,30.15,North,0,8.3,8.3,0,0.00,,---,0.00,VWS V14.01,2013-11-13 20:51:00,
2013-11-13 15:52:00,0.0,0.0,30.15,WNW,285,3.6,8.3,0,0.00,,---,0.00,VWS V14.01,2013-11-13 20:52:00,
2013-11-13 15:53:00,0.0,0.0,30.15,NE,37,4.9,10.5,0,0.00,,---,0.00,VWS V14.01,2013-11-13 20:53:00,
2013-11-13 15:54:00,0.0,0.0,30.15,NE,36,2.7,10.5,0,0.00,,---,0.00,VWS V14.01,2013-11-13 20:54:00,
2013-11-13 15:55:00,0.0,0.0,30.15,NNE,28,2.7,4.0,0,0.00,,---,0.00,VWS V14.01,2013-11-13 20:55:00,
2013-11-13 15:56:00,0.0,0.0,30.15,NNE,27,0.0,4.0,0,0.00,,---,0.00,VWS V14.01,2013-11-13 20:56:00,
2013-11-13 15:57:00,0.0,0.0,30.15,NW,315,6.3,7.6,0,0.00,,---,0.00,VWS V14.01,2013-11-13 20:57:00,
2013-11-13 15:58:00,0.0,0.0,30.15,WNW,284,8.7,8.7,0,0.00,,---,0.00,VWS V14.01,2013-11-13 20:58:00,
2013-11-13 15:59:00,0.0,0.0,30.15,NNW,344,8.1,8.7,0,0.00,,---,0.00,VWS V14.01,2013-11-13 20:59:00,
2013-11-13 16:00:00,0.0,0.0,30.15,NW,325,12.8,12.8,0,0.00,,---,0.00,VWS V14.01,2013-11-13 21:00:00,
2013-11-13 16:01:00,0.0,0.0,30.15,WNW,298,4.0,12.8,0,0.00,,---,0.00,VWS V14.01,2013-11-13 21:01:00,
2013-11-13 16:02:00,0.0,0.0,30.15,NNW,338,8.1,9.6,0,0.00,,---,0.00,VWS V14.01,2013-11-13 21:02:00,
2013-11-13 16:03:00,0.0,0.0,30.15,North,349,8.3,8.3,0,0.00,,---,0.00,VWS V14.01,2013-11-13 21:03:00,
2013-11-13 16:04:00,0.0,0.0,30.15,North,349,8.3,8.3,0,0.00,,---,0.00,VWS V14.01,2013-11-13 21:04:00,
2013-11-13 16:05:00,0.0,0.0,30.15,NE,38,3.6,12.3,0,0.00,,---,0.00,VWS V14.01,2013-11-13 21:05:00,
2013-11-13 16:06:00,0.0,0.0,30.15,WNW,301,6.3,8.3,0,0.00,,---,0.00,VWS V14.01,2013-11-13 21:06:00,
2013-11-13 16:07:00,0.0,0.0,30.15,NNW,338,3.1,7.6,0,0.00,,---,0.00,VWS V14.01,2013-11-13 21:07:00,
2013-11-13 16:08:00,0.0,0.0,30.15,NNE,15,11.0,11.0,0,0.00,,---,0.00,VWS V14.01,2013-11-13 21:08:00,
2013-11-13 16:09:00,0.0,0.0,30.15,North,4,5.8,11.0,0,0.00,,---,0.00,VWS V14.01,2013-11-13 21:09:00,
2013-11-13 16:10:00,0.0,0.0,30.15,NW,322,12.3,12.3,0,0.00,,---,0.00,VWS V14.01,2013-11-13 21:10:00,
2013-11-13 16:11:00,0.0,0.0,30.15,NNE,14,6.7,17.0,0,0.00,,---,0.00,VWS V14.01,2013-11-13 21:11:00,
2013-11-13 16:12:00,0.0,0.0,30.15,North,11,4.0,10.5,0,0.00,,---,0.00,VWS V14.01,2013-11-13 21:12:00,
2013-11-13 16:13:00,0.0,0.0,30.15,NNW,337,5.8,8.7,0,0.00,,---,0.00,VWS V14.01,2013-11-13 21:13:00,
2013-11-13 16:14:00,0.0,0.0,30.15,NW,322,5.4,8.7,0,0.00,,---,0.00,VWS V14.01,2013-11-13 21:14:00,
2013-11-13 16:15:00,0.0,0.0,30.15,NE,38,8.7,8.7,0,0.00,,---,0.00,VWS V14.01,2013-11-13 21:15:00,
2013-11-13 16:16:00,0.0,0.0,30.15,NW,321,14.5,15.4,0,0.00,,---,0.00,VWS V14.01,2013-11-13 21:16:00,
2013-11-13 16:17:00,0.0,0.0,30.15,WNW,290,6.3,14.5,0,0.00,,---,0.00,VWS V14.01,2013-11-13 21:17:00,
2013-11-13 16:18:00,0.0,0.0,30.15,NNW,341,5.4,7.2,0,0.00,,---,0.00,VWS V14.01,2013-11-13 21:18:00,
2013-11-13 16:19:00,0.0,0.0,30.15,NNW,341,5.4,7.2,0,0.00,,---,0.00,VWS V14.01,2013-11-13 21:19:00,
2013-11-13 16:20:00,0.0,0.0,30.15,NNW,332,6.3,10.1,0,0.00,,---,0.00,VWS V14.01,2013-11-13 21:20:00,
2013-11-13 16:21:00,0.0,0.0,30.15,North,5,3.6,8.3,0,0.00,,---,0.00,VWS V14.01,2013-11-13 21:21:00,
2013-11-13 16:22:00,0.0,0.0,30.15,NNW,333,5.8,6.3,0,0.00,,---,0.00,VWS V14.01,2013-11-13 21:22:00,
2013-11-13 16:23:00,0.0,0.0,30.15,NNE,14,5.8,13.2,0,0.00,,---,0.00,VWS V14.01,2013-11-13 21:23:00,
2013-11-13 16:24:00,0.0,0.0,30.15,South,169,2.7,13.2,0,0.00,,---,0.00,VWS V14.01,2013-11-13 21:24:00,
2013-11-13 16:25:00,0.0,0.0,30.15,NNE,19,6.7,8.7,0,0.00,,---,0.00,VWS V14.01,2013-11-13 21:25:00,
2013-11-13 16:26:00,0.0,0.0,30.15,North,357,8.3,11.0,0,0.00,,---,0.00,VWS V14.01,2013-11-13 21:26:00,
2013-11-13 16:27:00,0.0,0.0,30.15,NW,319,5.4,13.2,0,0.00,,---,0.00,VWS V14.01,2013-11-13 21:27:00,
2013-11-13 16:28:00,0.0,0.0,30.15,NW,311,3.1,7.6,0,0.00,,---,0.00,VWS V14.01,2013-11-13 21:28:00,
2013-11-13 16:29:00,0.0,0.0,30.15,NW,321,5.8,7.6,0,0.00,,---,0.00,VWS V14.01,2013-11-13 21:29:00,
2013-11-13 16:30:00,0.0,0.0,30.15,NE,35,3.1,8.7,0,0.00,,---,0.00,VWS V14.01,2013-11-13 21:30:00,
2013-11-13 16:31:00,0.0,0.0,30.15,NW,325,5.4,5.8,0,0.00,,---,0.00,VWS V14.01,2013-11-13 21:31:00,
2013-11-13 16:32:00,0.0,0.0,30.15,North,353,5.8,10.1,0,0.00,,---,0.00,VWS V14.01,2013-11-13 21:32:00,
2013-11-13 16:33:00,0.0,0.0,30.15,North,0,8.3,8.3,0,0.00,,---,0.00,VWS V14.01,2013-11-13 21:33:00,
2013-11-13 16:34:00,0.0,0.0,30.15,NE,36,4.0,8.3,0,0.00,,---,0.00,VWS V14.01,2013-11-13 21:34:00,
2013-11-13 16:35:00,0.0,0.0,30.15,WNW,286,3.6,8.3,0,0.00,,---,0.00,VWS V14.01,2013-11-13 21:35:00,
2013-11-13 16:36:00,0.0,0.0,30.15,NNE,14,7.6,7.6,0,0.00,,---,0.00,VWS V14.01,2013-11-13 21:36:00,
2013-11-13 16:37:00,0.0,0.0,30.15,North,5,8.3,8.3,0,0.00,,---,0.00,VWS V14.01,2013-11-13 21:37:00,
2013-11-13 16:38:00,0.0,0.0,30.15,North,353,11.0,11.0,0,0.00,,---,0.00,VWS V14.01,2013-11-13 21:38:00,
2013-11-13 16:39:00,0.0,0.0,30.15,NW,310,5.4,11.0,0,0.00,,---,0.00,VWS V14.01,2013-11-13 21:39:00,
2013-11-13 16:40:00,0.0,0.0,30.15,NW,309,10.5,11.0,0,0.00,,---,0.00,VWS V14.01,2013-11-13 21:40:00,
2013-11-13 16:41:00,0.0,0.0,30.15,NNW,348,5.8,10.5,0,0.00,,---,0.00,VWS V14.01,2013-11-13 21:41:00,
2013-11-13 16:42:00,0.0,0.0,30.15,North,0,3.6,11.0,0,0.00,,---,0.00,VWS V14.01,2013-11-13 21:42:00,
2013-11-13 16:43:00,0.0,0.0,30.15,North,357,3.6,10.1,0,0.00,,---,0.00,VWS V14.01,2013-11-13 21:43:00,
2013-11-13 16:44:00,0.0,0.0,30.15,North,357,7.2,10.1,0,0.00,,---,0.00,VWS V14.01,2013-11-13 21:44:00,
2013-11-13 16:45:00,0.0,0.0,30.15,NNE,27,2.7,8.1,0,0.00,,---,0.00,VWS V14.01,2013-11-13 21:45:00,
2013-11-13 16:46:00,0.0,0.0,30.15,NNW,334,5.8,6.3,0,0.00,,---,0.00,VWS V14.01,2013-11-13 21:46:00,
2013-11-13 16:47:00,0.0,0.0,30.15,NNW,339,8.3,8.3,0,0.00,,---,0.00,VWS V14.01,2013-11-13 21:47:00,
2013-11-13 16:48:00,0.0,0.0,30.15,North,4,3.1,7.6,0,0.00,,---,0.00,VWS V14.01,2013-11-13 21:48:00,
2013-11-13 16:49:00,0.0,0.0,30.15,North,4,2.7,7.6,0,0.00,,---,0.00,VWS V14.01,2013-11-13 21:49:00,
2013-11-13 16:50:00,0.0,0.0,30.15,North,357,4.0,11.4,0,0.00,,---,0.00,VWS V14.01,2013-11-13 21:50:00,
2013-11-13 16:51:00,0.0,0.0,30.15,NW,325,5.4,10.1,0,0.00,,---,0.00,VWS V14.01,2013-11-13 21:51:00,
2013-11-13 16:52:00,0.0,0.0,30.15,WNW,294,8.3,8.3,0,0.00,,---,0.00,VWS V14.01,2013-11-13 21:52:00,
2013-11-13 16:53:00,0.0,0.0,30.15,WNW,290,7.6,7.6,0,0.00,,---,0.00,VWS V14.01,2013-11-13 21:53:00,
2013-11-13 16:54:00,0.0,0.0,30.15,NW,326,7.2,7.6,0,0.00,,---,0.00,VWS V14.01,2013-11-13 21:54:00,
2013-11-13 16:55:00,0.0,0.0,30.15,North,4,2.7,7.6,0,0.00,,---,0.00,VWS V14.01,2013-11-13 21:55:00,
2013-11-13 16:56:00,0.0,0.0,30.18,North,11,3.6,5.4,0,0.00,,---,0.00,VWS V14.01,2013-11-13 21:56:00,
2013-11-13 16:57:00,0.0,0.0,30.18,North,357,7.6,7.6,0,0.00,,---,0.00,VWS V14.01,2013-11-13 21:57:00,
2013-11-13 16:58:00,0.0,0.0,30.18,NW,305,3.1,5.4,0,0.00,,---,0.00,VWS V14.01,2013-11-13 21:58:00,
2013-11-13 16:59:00,0.0,0.0,30.18,NE,40,6.3,10.1,0,0.00,,---,0.00,VWS V14.01,2013-11-13 21:59:00,
2013-11-13 17:00:00,0.0,0.0,30.18,North,353,6.3,13.2,0,0.00,,---,0.00,VWS V14.01,2013-11-13 22:00:00,
2013-11-13 17:01:00,0.0,0.0,30.18,SW,234,8.1,10.5,0,0.00,,---,0.00,VWS V14.01,2013-11-13 22:01:00,
2013-11-13 17:02:00,0.0,0.0,30.18,North,357,9.6,9.6,0,0.00,,---,0.00,VWS V14.01,2013-11-13 22:02:00,
2013-11-13 17:03:00,0.0,0.0,30.18,NW,306,5.4,16.3,0,0.00,,---,0.00,VWS V14.01,2013-11-13 22:03:00,
2013-11-13 17:04:00,0.0,0.0,30.18,NNW,335,6.3,6.3,0,0.00,,---,0.00,VWS V14.01,2013-11-13 22:04:00,
2013-11-13 17:05:00,0.0,0.0,30.18,NNW,340,7.6,8.7,0,0.00,,---,0.00,VWS V14.01,2013-11-13 22:05:00,
2013-11-13 17:06:00,0.0,0.0,30.18,NNE,20,8.3,12.3,0,0.00,,---,0.00,VWS V14.01,2013-11-13 22:06:00,
2013-11-13 17:07:00,0.0,0.0,30.18,North,353,6.3,10.5,0,0.00,,---,0.00,VWS V14.01,2013-11-13 22:07:00,
2013-11-13 17:08:00,0.0,0.0,30.18,WNW,290,3.1,8.1,0,0.00,,---,0.00,VWS V14.01,2013-11-13 22:08:00,
2013-11-13 17:09:00,0.0,0.0,30.18,SW,227,6.3,8.1,0,0.00,,---,0.00,VWS V14.01,2013-11-13 22:09:00,
2013-11-13 17:10:00,0.0,0.0,30.18,WNW,300,8.7,8.7,0,0.00,,---,0.00,VWS V14.01,2013-11-13 22:10:00,
2013-11-13 17:11:00,0.0,0.0,30.15,North,0,3.6,8.7,0,0.00,,---,0.00,VWS V14.01,2013-11-13 22:11:00,
2013-11-13 17:12:00,0.0,0.0,30.15,North,7,3.6,12.3,0,0.00,,---,0.00,VWS V14.01,2013-11-13 22:12:00,
2013-11-13 17:13:00,0.0,0.0,30.15,NNE,23,6.7,8.7,0,0.00,,---,0.00,VWS V14.01,2013-11-13 22:13:00,
2013-11-13 17:14:00,0.0,0.0,30.15,WNW,299,7.6,8.1,0,0.00,,---,0.00,VWS V14.01,2013-11-13 22:14:00,
2013-11-13 17:15:00,0.0,0.0,30.15,North,350,4.0,7.6,0,0.00,,---,0.00,VWS V14.01,2013-11-13 22:15:00,
2013-11-13 17:16:00,0.0,0.0,30.15,West,281,4.0,8.3,0,0.00,,---,0.00,VWS V14.01,2013-11-13 22:16:00,
2013-11-13 17:17:00,0.0,0.0,30.15,NNW,342,10.1,10.1,0,0.00,,---,0.00,VWS V14.01,2013-11-13 22:17:00,
2013-11-13 17:18:00,0.0,0.0,30.15,NNW,345,5.4,10.5,0,0.00,,---,0.00,VWS V14.01,2013-11-13 22:18:00,
2013-11-13 17:19:00,0.0,0.0,30.15,NNW,345,12.3,12.3,0,0.00,,---,0.00,VWS V14.01,2013-11-13 22:19:00,
2013-11-13 17:20:00,0.0,0.0,30.15,WNW,298,3.1,13.2,0,0.00,,---,0.00,VWS V14.01,2013-11-13 22:20:00,
2013-11-13 17:21:00,0.0,0.0,30.15,NW,325,12.8,12.8,0,0.00,,---,0.00,VWS V14.01,2013-11-13 22:21:00,
2013-11-13 17:22:00,0.0,0.0,30.15,North,2,7.6,15.4,0,0.00,,---,0.00,VWS V14.01,2013-11-13 22:22:00,
2013-11-13 17:23:00,0.0,0.0,30.15,NW,318,5.8,8.3,0,0.00,,---,0.00,VWS V14.01,2013-11-13 22:23:00,
2013-11-13 17:24:00,0.0,0.0,30.15,North,3,4.0,6.3,0,0.00,,---,0.00,VWS V14.01,2013-11-13 22:24:00,
2013-11-13 17:25:00,0.0,0.0,30.15,NW,321,10.1,13.2,0,0.00,,---,0.00,VWS V14.01,2013-11-13 22:25:00,
2013-11-13 17:26:00,0.0,0.0,30.18,North,3,5.4,10.1,0,0.00,,---,0.00,VWS V14.01,2013-11-13 22:26:00,
2013-11-13 17:27:00,0.0,0.0,30.18,WNW,286,8.3,8.3,0,0.00,,---,0.00,VWS V14.01,2013-11-13 22:27:00,
2013-11-13 17:28:00,0.0,0.0,30.18,West,260,15.9,15.9,0,0.00,,---,0.00,VWS V14.01,2013-11-13 22:28:00,
2013-11-13 17:29:00,0.0,0.0,30.18,NW,310,6.7,15.9,0,0.00,,---,0.00,VWS V14.01,2013-11-13 22:29:00,
2013-11-13 17:30:00,0.0,0.0,30.18,NNW,338,7.6,7.6,0,0.00,,---,0.00,VWS V14.01,2013-11-13 22:30:00,
2013-11-13 17:31:00,0.0,0.0,30.18,NNW,343,5.8,7.6,0,0.00,,---,0.00,VWS V14.01,2013-11-13 22:31:00,
2013-11-13 17:32:00,0.0,0.0,30.18,NNW,341,3.6,7.6,0,0.00,,---,0.00,VWS V14.01,2013-11-13 22:32:00,
2013-11-13 17:33:00,0.0,0.0,30.18,NW,318,7.6,7.6,0,0.00,,---,0.00,VWS V14.01,2013-11-13 22:33:00,
2013-11-13 17:34:00,0.0,0.0,30.18,SW,234,4.9,7.6,0,0.00,,---,0.00,VWS V14.01,2013-11-13 22:34:00,
2013-11-13 17:35:00,0.0,0.0,30.18,NNE,14,10.1,10.1,0,0.00,,---,0.00,VWS V14.01,2013-11-13 22:35:00,
2013-11-13 17:36:00,0.0,0.0,30.18,West,261,5.4,11.4,0,0.00,,---,0.00,VWS V14.01,2013-11-13 22:36:00,
2013-11-13 17:37:00,0.0,0.0,30.18,NW,311,8.7,8.7,0,0.00,,---,0.00,VWS V14.01,2013-11-13 22:37:00,
2013-11-13 17:38:00,0.0,0.0,30.18,NNW,333,3.6,8.7,0,0.00,,---,0.00,VWS V14.01,2013-11-13 22:38:00,
2013-11-13 17:39:00,0.0,0.0,30.18,NW,310,6.3,10.5,0,0.00,,---,0.00,VWS V14.01,2013-11-13 22:39:00,
2013-11-13 17:40:00,0.0,0.0,30.18,NNE,29,5.4,8.1,0,0.00,,---,0.00,VWS V14.01,2013-11-13 22:40:00,
2013-11-13 17:41:00,0.0,0.0,30.18,NNW,339,7.6,14.5,0,0.00,,---,0.00,VWS V14.01,2013-11-13 22:41:00,
2013-11-13 17:42:00,0.0,0.0,30.18,WNW,303,5.4,7.6,0,0.00,,---,0.00,VWS V14.01,2013-11-13 22:42:00,
2013-11-13 17:43:00,0.0,0.0,30.18,NNW,327,8.3,11.0,0,0.00,,---,0.00,VWS V14.01,2013-11-13 22:43:00,
2013-11-13 17:44:00,0.0,0.0,30.18,WNW,299,8.7,8.7,0,0.00,,---,0.00,VWS V14.01,2013-11-13 22:44:00,
2013-11-13 17:45:00,0.0,0.0,30.18,WNW,301,3.1,8.7,0,0.00,,---,0.00,VWS V14.01,2013-11-13 22:45:00,
2013-11-13 17:46:00,0.0,0.0,30.18,NNE,15,7.6,7.6,0,0.00,,---,0.00,VWS V14.01,2013-11-13 22:46:00,
2013-11-13 17:47:00,0.0,0.0,30.18,North,357,10.5,11.0,0,0.00,,---,0.00,VWS V14.01,2013-11-13 22:47:00,
2013-11-13 17:48:00,0.0,0.0,30.18,NNE,14,6.3,10.5,0,0.00,,---,0.00,VWS V14.01,2013-11-13 22:48:00,
2013-11-13 17:49:00,0.0,0.0,30.18,NNW,342,8.3,8.3,0,0.00,,---,0.00,VWS V14.01,2013-11-13 22:49:00,
2013-11-13 17:50:00,0.0,0.0,30.18,NNE,32,3.6,8.3,0,0.00,,---,0.00,VWS V14.01,2013-11-13 22:50:00,
2013-11-13 17:51:00,0.0,0.0,30.18,NW,321,5.4,10.5,0,0.00,,---,0.00,VWS V14.01,2013-11-13 22:51:00,
2013-11-13 17:52:00,0.0,0.0,30.18,NNW,330,6.3,8.1,0,0.00,,---,0.00,VWS V14.01,2013-11-13 22:52:00,
2013-11-13 17:53:00,0.0,0.0,30.18,NNE,28,10.1,10.5,0,0.00,,---,0.00,VWS V14.01,2013-11-13 22:53:00,
2013-11-13 17:54:00,0.0,0.0,30.18,NNE,27,8.3,10.1,0,0.00,,---,0.00,VWS V14.01,2013-11-13 22:54:00,
2013-11-13 17:55:00,0.0,0.0,30.18,NNE,29,4.0,12.8,0,0.00,,---,0.00,VWS V14.01,2013-11-13 22:55:00,
2013-11-13 17:56:00,0.0,0.0,30.18,North,5,4.0,6.3,0,0.00,,---,0.00,VWS V14.01,2013-11-13 22:56:00,
2013-11-13 17:57:00,0.0,0.0,30.18,North,5,8.3,8.3,0,0.00,,---,0.00,VWS V14.01,2013-11-13 22:57:00,
2013-11-13 17:58:00,0.0,0.0,30.18,ENE,72,7.6,8.3,0,0.00,,---,0.00,VWS V14.01,2013-11-13 22:58:00,
2013-11-13 17:59:00,0.0,0.0,30.18,NNW,329,2.7,7.6,0,0.00,,---,0.00,VWS V14.01,2013-11-13 22:59:00,
2013-11-13 18:00:00,0.0,0.0,30.18,NNW,339,6.3,6.3,0,0.00,,---,0.00,VWS V14.01,2013-11-13 23:00:00,
2013-11-13 18:01:00,0.0,0.0,30.18,NNW,334,6.3,11.0,0,0.00,,---,0.00,VWS V14.01,2013-11-13 23:01:00,
2013-11-13 18:02:00,0.0,0.0,30.18,NW,307,9.6,9.6,0,0.00,,---,0.00,VWS V14.01,2013-11-13 23:02:00,
2013-11-13 18:03:00,0.0,0.0,30.18,NW,308,6.7,9.6,0,0.00,,---,0.00,VWS V14.01,2013-11-13 23:03:00,
2013-11-13 18:04:00,0.0,0.0,30.18,NNE,30,8.1,8.1,0,0.00,,---,0.00,VWS V14.01,2013-11-13 23:04:00,
2013-11-13 18:05:00,0.0,0.0,30.18,NNE,23,8.3,16.8,0,0.00,,---,0.00,VWS V14.01,2013-11-13 23:05:00,
2013-11-13 18:06:00,0.0,0.0,30.18,NW,318,6.3,8.3,0,0.00,,---,0.00,VWS V14.01,2013-11-13 23:06:00,
2013-11-13 18:07:00,0.0,0.0,30.18,North,353,9.6,9.6,0,0.00,,---,0.00,VWS V14.01,2013-11-13 23:07:00,
2013-11-13 18:08:00,0.0,0.0,30.18,WNW,295,12.3,12.3,0,0.00,,---,0.00,VWS V14.01,2013-11-13 23:08:00,
2013-11-13 18:09:00,0.0,0.0,30.18,North,353,6.3,12.8,0,0.00,,---,0.00,VWS V14.01,2013-11-13 23:09:00,
2013-11-13 18:10:00,0.0,0.0,30.18,NNW,346,12.3,12.3,0,0.00,,---,0.00,VWS V14.01,2013-11-13 23:10:00,
2013-11-13 18:11:00,0.0,0.0,30.21,North,0,8.7,12.3,0,0.00,,---,0.00,VWS V14.01,2013-11-13 23:11:00,
2013-11-13 18:12:00,0.0,0.0,30.21,NE,39,3.6,13.2,0,0.00,,---,0.00,VWS V14.01,2013-11-13 23:12:00,
2013-11-13 18:13:00,0.0,0.0,30.21,North,6,10.1,10.1,0,0.00,,---,0.00,VWS V14.01,2013-11-13 23:13:00,
2013-11-13 18:14:00,0.0,0.0,30.21,North,2,8.7,10.1,0,0.00,,---,0.00,VWS V14.01,2013-11-13 23:14:00,
2013-11-13 18:15:00,0.0,0.0,30.21,North,353,10.1,10.1,0,0.00,,---,0.00,VWS V14.01,2013-11-13 23:15:00,
2013-11-13 18:16:00,0.0,0.0,30.21,North,0,6.3,10.1,0,0.00,,---,0.00,VWS V14.01,2013-11-13 23:16:00,
2013-11-13 18:17:00,0.0,0.0,30.21,NW,314,8.7,9.6,0,0.00,,---,0.00,VWS V14.01,2013-11-13 23:17:00,
2013-11-13 18:18:00,0.0,0.0,30.21,North,2,5.8,10.5,0,0.00,,---,0.00,VWS V14.01,2013-11-13 23:18:00,
2013-11-13 18:19:00,0.0,0.0,30.21,NNE,20,5.4,10.1,0,0.00,,---,0.00,VWS V14.01,2013-11-13 23:19:00,
2013-11-13 18:20:00,0.0,0.0,30.21,North,349,8.1,9.2,0,0.00,,---,0.00,VWS V14.01,2013-11-13 23:20:00,
2013-11-13 18:21:00,0.0,0.0,30.21,NNE,25,8.3,8.3,0,0.00,,---,0.00,VWS V14.01,2013-11-13 23:21:00,
2013-11-13 18:22:00,0.0,0.0,30.21,North,8,12.8,13.2,0,0.00,,---,0.00,VWS V14.01,2013-11-13 23:22:00,
2013-11-13 18:23:00,0.0,0.0,30.21,NNW,337,5.8,12.8,0,0.00,,---,0.00,VWS V14.01,2013-11-13 23:23:00,
2013-11-13 18:24:00,0.0,0.0,30.21,NW,321,5.4,8.1,0,0.00,,---,0.00,VWS V14.01,2013-11-13 23:24:00,
2013-11-13 18:25:00,0.0,0.0,30.21,North,357,5.4,8.3,0,0.00,,---,0.00,VWS V14.01,2013-11-13 23:25:00,
2013-11-13 18:26:00,0.0,0.0,30.21,NNW,341,5.4,8.3,0,0.00,,---,0.00,VWS V14.01,2013-11-13 23:26:00,
2013-11-13 18:27:00,0.0,0.0,30.21,North,357,4.0,5.4,0,0.00,,---,0.00,VWS V14.01,2013-11-13 23:27:00,
2013-11-13 18:28:00,0.0,0.0,30.21,NNE,21,5.8,7.6,0,0.00,,---,0.00,VWS V14.01,2013-11-13 23:28:00,
2013-11-13 18:29:00,0.0,0.0,30.21,North,7,7.2,7.6,0,0.00,,---,0.00,VWS V14.01,2013-11-13 23:29:00,
2013-11-13 18:30:00,0.0,0.0,30.21,North,6,7.6,7.6,0,0.00,,---,0.00,VWS V14.01,2013-11-13 23:30:00,
2013-11-13 18:31:00,0.0,0.0,30.21,North,353,6.3,7.6,0,0.00,,---,0.00,VWS V14.01,2013-11-13 23:31:00,
2013-11-13 18:32:00,0.0,0.0,30.21,West,265,4.0,6.3,0,0.00,,---,0.00,VWS V14.01,2013-11-13 23:32:00,
2013-11-13 18:33:00,0.0,0.0,30.21,NNW,346,8.3,13.2,0,0.00,,---,0.00,VWS V14.01,2013-11-13 23:33:00,
2013-11-13 18:34:00,0.0,0.0,30.21,NNW,339,6.3,8.3,0,0.00,,---,0.00,VWS V14.01,2013-11-13 23:34:00,
2013-11-13 18:35:00,0.0,0.0,30.21,North,357,3.6,8.3,0,0.00,,---,0.00,VWS V14.01,2013-11-13 23:35:00,
2013-11-13 18:36:00,0.0,0.0,30.21,North,9,6.3,9.6,0,0.00,,---,0.00,VWS V14.01,2013-11-13 23:36:00,
2013-11-13 18:37:00,0.0,0.0,30.21,NNE,31,9.6,17.4,0,0.00,,---,0.00,VWS V14.01,2013-11-13 23:37:00,
2013-11-13 18:38:00,0.0,0.0,30.21,North,353,8.1,9.6,0,0.00,,---,0.00,VWS V14.01,2013-11-13 23:38:00,
2013-11-13 18:39:00,0.0,0.0,30.21,WNW,291,5.4,10.5,0,0.00,,---,0.00,VWS V14.01,2013-11-13 23:39:00,
2013-11-13 18:40:00,0.0,0.0,30.21,NNE,27,12.3,12.8,0,0.00,,---,0.00,VWS V14.01,2013-11-13 23:40:00,
2013-11-13 18:41:00,0.0,0.0,30.21,NE,34,10.5,12.3,0,0.00,,---,0.00,VWS V14.01,2013-11-13 23:41:00,
2013-11-13 18:42:00,0.0,0.0,30.21,NNE,22,10.5,10.5,0,0.00,,---,0.00,VWS V14.01,2013-11-13 23:42:00,
2013-11-13 18:43:00,0.0,0.0,30.21,NNE,16,4.0,10.5,0,0.00,,---,0.00,VWS V14.01,2013-11-13 23:43:00,
2013-11-13 18:44:00,0.0,0.0,30.21,WNW,303,5.4,8.3,0,0.00,,---,0.00,VWS V14.01,2013-11-13 23:44:00,
2013-11-13 18:45:00,0.0,0.0,30.21,NNE,27,4.9,6.7,0,0.00,,---,0.00,VWS V14.01,2013-11-13 23:45:00,
2013-11-13 18:46:00,0.0,0.0,30.21,NW,311,7.6,7.6,0,0.00,,---,0.00,VWS V14.01,2013-11-13 23:46:00,
2013-11-13 18:47:00,0.0,0.0,30.21,NE,38,4.0,7.6,0,0.00,,---,0.00,VWS V14.01,2013-11-13 23:47:00,
2013-11-13 18:48:00,0.0,0.0,30.21,North,357,4.0,5.4,0,0.00,,---,0.00,VWS V14.01,2013-11-13 23:48:00,
2013-11-13 18:49:00,0.0,0.0,30.21,NNE,12,3.1,6.3,0,0.00,,---,0.00,VWS V14.01,2013-11-13 23:49:00,
2013-11-13 18:50:00,0.0,0.0,30.21,ENE,62,10.5,10.5,0,0.00,,---,0.00,VWS V14.01,2013-11-13 23:50:00,
2013-11-13 18:51:00,0.0,0.0,30.21,North,357,4.9,10.5,0,0.00,,---,0.00,VWS V14.01,2013-11-13 23:51:00,
2013-11-13 18:52:00,0.0,0.0,30.21,NNW,331,9.6,9.6,0,0.00,,---,0.00,VWS V14.01,2013-11-13 23:52:00,
2013-11-13 18:53:00,0.0,0.0,30.21,NW,314,5.8,9.6,0,0.00,,---,0.00,VWS V14.01,2013-11-13 23:53:00,
2013-11-13 18:54:00,0.0,0.0,30.21,NW,325,4.9,12.3,0,0.00,,---,0.00,VWS V14.01,2013-11-13 23:54:00,
2013-11-13 18:55:00,0.0,0.0,30.21,North,3,3.6,12.3,0,0.00,,---,0.00,VWS V14.01,2013-11-13 23:55:00,
2013-11-13 18:56:00,0.0,0.0,30.21,NW,316,12.3,12.8,0,0.00,,---,0.00,VWS V14.01,2013-11-13 23:56:00,
2013-11-13 18:57:00,0.0,0.0,30.21,North,353,6.3,12.8,0,0.00,,---,0.00,VWS V14.01,2013-11-13 23:57:00,
2013-11-13 18:58:00,0.0,0.0,30.21,NE,34,10.1,12.8,0,0.00,,---,0.00,VWS V14.01,2013-11-13 23:58:00,
2013-11-13 18:59:00,0.0,0.0,30.21,WNW,288,8.3,10.1,0,0.00,,---,0.00,VWS V14.01,2013-11-13 23:59:00,
2013-11-13 19:00:00,0.0,0.0,30.21,NNW,327,11.0,11.0,0,0.00,,---,0.00,VWS V14.01,2013-11-14 00:00:00,
2013-11-13 19:01:00,0.0,0.0,30.21,West,267,4.0,11.0,0,0.00,,---,0.00,VWS V14.01,2013-11-14 00:01:00,
2013-11-13 19:02:00,0.0,0.0,30.21,NW,312,11.0,11.0,0,0.00,,---,0.00,VWS V14.01,2013-11-14 00:02:00,
2013-11-13 19:03:00,0.0,0.0,30.21,North,0,6.3,11.0,0,0.00,,---,0.00,VWS V14.01,2013-11-14 00:03:00,
2013-11-13 19:04:00,0.0,0.0,30.21,NNW,342,8.1,13.2,0,0.00,,---,0.00,VWS V14.01,2013-11-14 00:04:00,
2013-11-13 19:05:00,0.0,0.0,30.21,NNW,329,8.1,8.7,0,0.00,,---,0.00,VWS V14.01,2013-11-14 00:05:00,
2013-11-13 19:06:00,0.0,0.0,30.21,North,8,5.8,9.2,0,0.00,,---,0.00,VWS V14.01,2013-11-14 00:06:00,
2013-11-13 19:07:00,0.0,0.0,30.21,NNW,336,5.4,7.6,0,0.00,,---,0.00,VWS V14.01,2013-11-14 00:07:00,
2013-11-13 19:08:00,0.0,0.0,30.21,East,88,11.0,11.0,0,0.00,,---,0.00,VWS V14.01,2013-11-14 00:08:00,
2013-11-13 19:09:00,0.0,0.0,30.21,NNE,15,8.3,11.0,0,0.00,,---,0.00,VWS V14.01,2013-11-14 00:09:00,
2013-11-13 19:10:00,0.0,0.0,30.21,North,9,12.3,12.3,0,0.00,,---,0.00,VWS V14.01,2013-11-14 00:10:00,
2013-11-13 19:11:00,0.0,0.0,30.21,WNW,286,11.0,12.3,0,0.00,,---,0.00,VWS V14.01,2013-11-14 00:11:00,
2013-11-13 19:12:00,0.0,0.0,30.21,WNW,301,3.6,13.2,0,0.00,,---,0.00,VWS V14.01,2013-11-14 00:12:00,
2013-11-13 19:13:00,0.0,0.0,30.21,North,6,12.3,12.3,0,0.00,,---,0.00,VWS V14.01,2013-11-14 00:13:00,
2013-11-13 19:14:00,0.0,0.0,30.21,NE,34,4.9,12.3,0,0.00,,---,0.00,VWS V14.01,2013-11-14 00:14:00,
2013-11-13 19:15:00,0.0,0.0,30.21,NNW,334,5.4,10.5,0,0.00,,---,0.00,VWS V14.01,2013-11-14 00:15:00,
2013-11-13 19:16:00,0.0,0.0,30.21,NW,316,5.4,9.2,0,0.00,,---,0.00,VWS V14.01,2013-11-14 00:16:00,
2013-11-13 19:17:00,0.0,0.0,30.21,NNW,346,11.9,12.3,0,0.00,,---,0.00,VWS V14.01,2013-11-14 00:17:00,
2013-11-13 19:18:00,0.0,0.0,30.21,North,353,3.1,11.9,0,0.00,,---,0.00,VWS V14.01,2013-11-14 00:18:00,
2013-11-13 19:19:00,0.0,0.0,30.21,NE,34,10.5,10.5,0,0.00,,---,0.00,VWS V14.01,2013-11-14 00:19:00,
2013-11-13 19:20:00,0.0,0.0,30.21,West,265,8.7,10.1,0,0.00,,---,0.00,VWS V14.01,2013-11-14 00:20:00,
2013-11-13 19:21:00,0.0,0.0,30.21,North,0,4.9,10.5,0,0.00,,---,0.00,VWS V14.01,2013-11-14 00:21:00,
2013-11-13 19:22:00,0.0,0.0,30.21,NW,306,5.8,5.8,0,0.00,,---,0.00,VWS V14.01,2013-11-14 00:22:00,
2013-11-13 19:23:00,0.0,0.0,30.21,NNW,348,6.3,9.2,0,0.00,,---,0.00,VWS V14.01,2013-11-14 00:23:00,
2013-11-13 19:24:00,0.0,0.0,30.21,North,1,8.7,8.7,0,0.00,,---,0.00,VWS V14.01,2013-11-14 00:24:00,
2013-11-13 19:25:00,0.0,0.0,30.21,NNW,330,8.1,8.1,0,0.00,,---,0.00,VWS V14.01,2013-11-14 00:25:00,
2013-11-13 19:26:00,0.0,0.0,30.21,North,11,8.1,10.5,0,0.00,,---,0.00,VWS V14.01,2013-11-14 00:26:00,
2013-11-13 19:27:00,0.0,0.0,30.21,North,4,3.6,8.7,0,0.00,,---,0.00,VWS V14.01,2013-11-14 00:27:00,
2013-11-13 19:28:00,0.0,0.0,30.21,NNE,15,8.7,8.7,0,0.00,,---,0.00,VWS V14.01,2013-11-14 00:28:00,
2013-11-13 19:29:00,0.0,0.0,30.21,NNE,33,12.8,12.8,0,0.00,,---,0.00,VWS V14.01,2013-11-14 00:29:00,
2013-11-13 19:30:00,0.0,0.0,30.21,North,7,8.3,12.8,0,0.00,,---,0.00,VWS V14.01,2013-11-14 00:30:00,
2013-11-13 19:31:00,0.0,0.0,30.21,North,0,3.1,8.3,0,0.00,,---,0.00,VWS V14.01,2013-11-14 00:31:00,
2013-11-13 19:32:00,0.0,0.0,30.21,North,1,7.6,8.3,0,0.00,,---,0.00,VWS V14.01,2013-11-14 00:32:00,
2013-11-13 19:33:00,0.0,0.0,30.21,WNW,299,5.4,9.2,0,0.00,,---,0.00,VWS V14.01,2013-11-14 00:33:00,
2013-11-13 19:34:00,0.0,0.0,30.21,NW,316,10.1,10.1,0,0.00,,---,0.00,VWS V14.01,2013-11-14 00:34:00,
2013-11-13 19:35:00,0.0,0.0,30.21,North,0,10.5,10.5,0,0.00,,---,0.00,VWS V14.01,2013-11-14 00:35:00,
2013-11-13 19:36:00,0.0,0.0,30.21,North,7,12.8,12.8,0,0.00,,---,0.00,VWS V14.01,2013-11-14 00:36:00,
2013-11-13 19:37:00,0.0,0.0,30.21,NE,51,7.6,12.8,0,0.00,,---,0.00,VWS V14.01,2013-11-14 00:37:00,
2013-11-13 19:38:00,0.0,0.0,30.21,NNW,346,6.3,10.5,0,0.00,,---,0.00,VWS V14.01,2013-11-14 00:38:00,
2013-11-13 19:39:00,0.0,0.0,30.21,NW,326,4.9,10.5,0,0.00,,---,0.00,VWS V14.01,2013-11-14 00:39:00,
2013-11-13 19:40:00,0.0,0.0,30.21,North,353,3.6,5.4,0,0.00,,---,0.00,VWS V14.01,2013-11-14 00:40:00,
2013-11-13 19:41:00,0.0,0.0,30.24,NNE,24,5.8,10.5,0,0.00,,---,0.00,VWS V14.01,2013-11-14 00:41:00,
2013-11-13 19:42:00,0.0,0.0,30.24,NW,326,8.7,11.0,0,0.00,,---,0.00,VWS V14.01,2013-11-14 00:42:00,
2013-11-13 19:43:00,0.0,0.0,30.24,NW,324,11.0,11.0,0,0.00,,---,0.00,VWS V14.01,2013-11-14 00:43:00,
2013-11-13 19:44:00,0.0,0.0,30.24,NW,324,11.0,11.0,0,0.00,,---,0.00,VWS V14.01,2013-11-14 00:44:00,
2013-11-13 19:45:00,0.0,0.0,30.24,NW,324,11.0,11.0,0,0.00,,---,0.00,VWS V14.01,2013-11-14 00:45:00,
2013-11-13 19:46:00,0.0,0.0,30.24,NW,324,11.0,11.0,0,0.00,,---,0.00,VWS V14.01,2013-11-14 00:46:00,
2013-11-13 19:47:00,0.0,0.0,30.24,WNW,299,15.9,15.9,0,0.00,,---,0.00,VWS V14.01,2013-11-14 00:47:00,
2013-11-13 19:48:00,0.0,0.0,30.24,North,0,8.1,8.1,0,0.00,,---,0.00,VWS V14.01,2013-11-14 00:48:00,
2013-11-13 19:49:00,0.0,0.0,30.24,North,0,8.1,8.1,0,0.00,,---,0.00,VWS V14.01,2013-11-14 00:49:00,
2013-11-13 19:50:00,0.0,0.0,30.24,North,0,5.4,8.1,0,0.00,,---,0.00,VWS V14.01,2013-11-14 00:50:00,
2013-11-13 19:51:00,0.0,0.0,30.24,North,0,5.4,5.4,0,0.00,,---,0.00,VWS V14.01,2013-11-14 00:51:00,
2013-11-13 19:52:00,0.0,0.0,30.24,NNE,14,5.4,5.4,0,0.00,,---,0.00,VWS V14.01,2013-11-14 00:52:00,
2013-11-13 19:53:00,0.0,0.0,30.24,North,2,8.3,8.3,0,0.00,,---,0.00,VWS V14.01,2013-11-14 00:53:00,
2013-11-13 19:54:00,0.0,0.0,30.24,North,2,8.3,8.3,0,0.00,,---,0.00,VWS V14.01,2013-11-14 00:54:00,
2013-11-13 19:55:00,0.0,0.0,30.24,WNW,291,5.8,8.3,0,0.00,,---,0.00,VWS V14.01,2013-11-14 00:55:00,
2013-11-13 19:56:00,0.0,0.0,30.24,NNW,332,4.0,5.8,0,0.00,,---,0.00,VWS V14.01,2013-11-14 00:56:00,
2013-11-13 19:57:00,0.0,0.0,30.24,NW,314,3.6,4.0,0,0.00,,---,0.00,VWS V14.01,2013-11-14 00:57:00,
2013-11-13 19:58:00,0.0,0.0,30.24,NNE,28,4.9,4.9,0,0.00,,---,0.00,VWS V14.01,2013-11-14 00:58:00,
2013-11-13 19:59:00,0.0,0.0,30.24,NNE,28,4.9,4.9,0,0.00,,---,0.00,VWS V14.01,2013-11-14 00:59:00,
2013-11-13 20:00:00,0.0,0.0,30.24,NNE,28,4.9,4.9,0,0.00,,---,0.00,VWS V14.01,2013-11-14 01:00:00,
2013-11-13 20:01:00,0.0,0.0,30.24,NNE,28,4.9,4.9,0,0.00,,---,0.00,VWS V14.01,2013-11-14 01:01:00,
2013-11-13 20:02:00,0.0,0.0,30.24,North,0,3.6,4.9,0,0.00,,---,0.00,VWS V14.01,2013-11-14 01:02:00,
2013-11-13 20:03:00,0.0,0.0,30.24,North,0,3.6,3.6,0,0.00,,---,0.00,VWS V14.01,2013-11-14 01:03:00,
2013-11-13 20:04:00,0.0,0.0,30.24,North,0,3.6,3.6,0,0.00,,---,0.00,VWS V14.01,2013-11-14 01:04:00,
2013-11-13 20:05:00,0.0,0.0,30.24,North,0,3.6,3.6,0,0.00,,---,0.00,VWS V14.01,2013-11-14 01:05:00,
2013-11-13 20:06:00,0.0,0.0,30.24,NNE,24,8.3,8.3,0,0.00,,---,0.00,VWS V14.01,2013-11-14 01:06:00,
2013-11-13 20:07:00,0.0,0.0,30.24,NNW,331,8.3,8.3,0,0.00,,---,0.00,VWS V14.01,2013-11-14 01:07:00,
2013-11-13 20:08:00,0.0,0.0,30.24,NW,315,10.5,10.5,0,0.00,,---,0.00,VWS V14.01,2013-11-14 01:08:00,
2013-11-13 20:09:00,0.0,0.0,30.24,NW,315,10.5,10.5,0,0.00,,---,0.00,VWS V14.01,2013-11-14 01:09:00,
2013-11-13 20:10:00,0.0,0.0,30.24,NNW,334,11.4,11.4,0,0.00,,---,0.00,VWS V14.01,2013-11-14 01:10:00,
2013-11-13 20:11:00,0.0,0.0,30.24,NNE,12,4.9,11.4,0,0.00,,---,0.00,VWS V14.01,2013-11-14 01:11:00,
2013-11-13 20:12:00,0.0,0.0,30.24,West,274,11.0,11.0,0,0.00,,---,0.00,VWS V14.01,2013-11-14 01:12:00,
2013-11-13 20:13:00,0.0,0.0,30.24,West,274,11.0,11.0,0,0.00,,---,0.00,VWS V14.01,2013-11-14 01:13:00,
2013-11-13 20:14:00,0.0,0.0,30.24,West,274,11.0,11.0,0,0.00,,---,0.00,VWS V14.01,2013-11-14 01:14:00,
2013-11-13 20:15:00,0.0,0.0,30.24,WNW,302,5.4,11.0,0,0.00,,---,0.00,VWS V14.01,2013-11-14 01:15:00,
2013-11-13 20:16:00,0.0,0.0,30.24,NW,322,5.4,5.4,0,0.00,,---,0.00,VWS V14.01,2013-11-14 01:16:00,
2013-11-13 20:17:00,0.0,0.0,30.24,NNE,16,2.7,5.4,0,0.00,,---,0.00,VWS V14.01,2013-11-14 01:17:00,
2013-11-13 20:18:00,0.0,0.0,30.24,NNE,16,2.7,2.7,0,0.00,,---,0.00,VWS V14.01,2013-11-14 01:18:00,
2013-11-13 20:19:00,0.0,0.0,30.24,North,353,4.9,4.9,0,0.00,,---,0.00,VWS V14.01,2013-11-14 01:19:00,
2013-11-13 20:20:00,0.0,0.0,30.24,North,357,4.9,4.9,0,0.00,,---,0.00,VWS V14.01,2013-11-14 01:20:00,
2013-11-13 20:21:00,0.0,0.0,30.24,North,357,4.9,4.9,0,0.00,,---,0.00,VWS V14.01,2013-11-14 01:21:00,
2013-11-13 20:22:00,0.0,0.0,30.24,North,357,4.9,4.9,0,0.00,,---,0.00,VWS V14.01,2013-11-14 01:22:00,
2013-11-13 20:23:00,0.0,0.0,30.24,NNE,23,4.9,4.9,0,0.00,,---,0.00,VWS V14.01,2013-11-14 01:23:00,
2013-11-13 20:24:00,0.0,0.0,30.24,NNE,23,4.9,4.9,0,0.00,,---,0.00,VWS V14.01,2013-11-14 01:24:00,